Wetterdaten: Dienstag, 19.05.2015
Datum Zeit Temp. Aussen +5cm Feuchte Auss Luftdruck Regen Sonnenschein Regendauer Solar Windben
19.05.2015 00:00 11,2 C 10,0 C 87 % 1004,9 hPa 0,0 l/m 0 min 0 min 0 W/m 16,7 km/h (3 Bft)
19.05.2015 00:02 11,2 C 10,0 C 87 % 1004,9 hPa 0,0 l/m 0 min 0 min 0 W/m 8,4 km/h (2 Bft)
19.05.2015 00:06 11,2 C 10,0 C 87 % 1004,9 hPa 0,0 l/m 0 min 2 min 0 W/m 25,1 km/h (4 Bft)
19.05.2015 00:08 11,2 C 10,0 C 87 % 1004,9 hPa 0,0 l/m 0 min 2 min 0 W/m 23,0 km/h (4 Bft)
19.05.2015 00:10 11,2 C 10,0 C 87 % 1004,9 hPa 0,2 l/m 0 min 2 min 0 W/m 16,7 km/h (3 Bft)
19.05.2015 00:12 11,2 C 10,0 C 87 % 1004,9 hPa 0,0 l/m 0 min 2 min 0 W/m 16,7 km/h (3 Bft)
19.05.2015 00:14 11,2 C 10,0 C 87 % 1005,0 hPa 0,0 l/m 0 min 2 min 0 W/m 29,3 km/h (5 Bft)
19.05.2015 00:16 11,2 C 10,0 C 87 % 1005,0 hPa 0,0 l/m 0 min 2 min 0 W/m 23,0 km/h (4 Bft)
19.05.2015 00:18 11,2 C 10,0 C 88 % 1005,1 hPa 0,0 l/m 0 min 2 min 0 W/m 27,2 km/h (4 Bft)
19.05.2015 00:20 11,1 C 10,0 C 88 % 1005,0 hPa 0,0 l/m 0 min 0 min 0 W/m 23,0 km/h (4 Bft)
19.05.2015 00:22 11,1 C 10,0 C 88 % 1005,1 hPa 0,0 l/m 0 min 0 min 0 W/m 27,2 km/h (4 Bft)
19.05.2015 00:24 11,1 C 10,0 C 88 % 1005,2 hPa 0,0 l/m 0 min 0 min 0 W/m 23,0 km/h (4 Bft)
19.05.2015 00:26 11,1 C 10,0 C 88 % 1005,1 hPa 0,0 l/m 0 min 0 min 0 W/m 23,0 km/h (4 Bft)
19.05.2015 00:28 11,1 C 10,0 C 88 % 1005,1 hPa 0,0 l/m 0 min 0 min 0 W/m 25,1 km/h (4 Bft)
19.05.2015 00:30 11,1 C 10,0 C 88 % 1005,1 hPa 0,0 l/m 0 min 0 min 0 W/m 25,1 km/h (4 Bft)
19.05.2015 00:32 11,0 C 10,0 C 88 % 1005,1 hPa 0,0 l/m 0 min 2 min 0 W/m 20,9 km/h (4 Bft)
19.05.2015 00:34 11,0 C 10,0 C 88 % 1004,9 hPa 0,0 l/m 0 min 2 min 0 W/m 18,8 km/h (3 Bft)
19.05.2015 00:36 11,0 C 10,0 C 88 % 1005,0 hPa 0,0 l/m 0 min 2 min 0 W/m 20,9 km/h (4 Bft)
19.05.2015 00:38 11,0 C 10,0 C 88 % 1005,0 hPa 0,0 l/m 0 min 2 min 0 W/m 18,8 km/h (3 Bft)
19.05.2015 00:40 11,0 C 10,0 C 88 % 1005,1 hPa 0,0 l/m 0 min 2 min 0 W/m 18,8 km/h (3 Bft)
19.05.2015 00:42 11,0 C 10,0 C 88 % 1005,1 hPa 0,0 l/m 0 min 2 min 0 W/m 18,8 km/h (3 Bft)
19.05.2015 00:44 10,9 C 10,0 C 88 % 1005,0 hPa 0,0 l/m 0 min 0 min 0 W/m 16,7 km/h (3 Bft)
19.05.2015 00:46 10,9 C 10,0 C 88 % 1004,9 hPa 0,0 l/m 0 min 0 min 0 W/m 25,1 km/h (4 Bft)
19.05.2015 00:48 10,9 C 10,0 C 88 % 1004,9 hPa 0,0 l/m 0 min 2 min 0 W/m 18,8 km/h (3 Bft)
19.05.2015 00:50 10,9 C 10,0 C 88 % 1004,9 hPa 0,0 l/m 0 min 2 min 0 W/m 25,1 km/h (4 Bft)
19.05.2015 00:52 10,8 C 10,0 C 88 % 1004,9 hPa 0,0 l/m 0 min 2 min 0 W/m 25,1 km/h (4 Bft)
19.05.2015 00:54 10,8 C 9,4 C 88 % 1004,9 hPa 0,0 l/m 0 min 2 min 0 W/m 16,7 km/h (3 Bft)
19.05.2015 00:56 10,8 C 9,4 C 87 % 1005,0 hPa 0,0 l/m 0 min 2 min 0 W/m 16,7 km/h (3 Bft)
19.05.2015 00:58 10,7 C 9,4 C 87 % 1005,0 hPa 0,0 l/m 0 min 2 min 0 W/m 14,6 km/h (3 Bft)
19.05.2015 01:00 10,7 C 9,4 C 87 % 1005,0 hPa 0,0 l/m 0 min 2 min 0 W/m 23,0 km/h (4 Bft)
19.05.2015 01:02 10,7 C 9,4 C 87 % 1005,1 hPa 0,0 l/m 0 min 2 min 0 W/m 23,0 km/h (4 Bft)
19.05.2015 01:04 10,6 C 9,4 C 87 % 1005,0 hPa 0,0 l/m 0 min 2 min 0 W/m 20,9 km/h (4 Bft)
19.05.2015 01:06 10,6 C 9,4 C 87 % 1005,0 hPa 0,0 l/m 0 min 2 min 0 W/m 18,8 km/h (3 Bft)
19.05.2015 01:08 10,5 C 9,4 C 86 % 1005,0 hPa 0,0 l/m 0 min 2 min 0 W/m 23,0 km/h (4 Bft)
19.05.2015 01:10 10,5 C 9,4 C 86 % 1004,9 hPa 0,0 l/m 0 min 2 min 0 W/m 23,0 km/h (4 Bft)
19.05.2015 01:12 10,4 C 9,4 C 86 % 1004,9 hPa 0,0 l/m 0 min 2 min 0 W/m 23,0 km/h (4 Bft)
19.05.2015 01:14 10,4 C 9,4 C 87 % 1004,9 hPa 0,0 l/m 0 min 2 min 0 W/m 14,6 km/h (3 Bft)
19.05.2015 01:16 10,4 C 9,4 C 87 % 1004,9 hPa 0,0 l/m 0 min 2 min 0 W/m 18,8 km/h (3 Bft)
19.05.2015 01:18 10,4 C 9,4 C 87 % 1004,8 hPa 0,2 l/m 0 min 2 min 0 W/m 20,9 km/h (4 Bft)
19.05.2015 01:20 10,3 C 9,4 C 87 % 1004,7 hPa 0,0 l/m 0 min 2 min 0 W/m 18,8 km/h (3 Bft)
19.05.2015 01:22 10,3 C 9,4 C 87 % 1004,7 hPa 0,0 l/m 0 min 2 min 0 W/m 16,7 km/h (3 Bft)
19.05.2015 01:24 10,2 C 9,4 C 87 % 1004,6 hPa 0,0 l/m 0 min 2 min 0 W/m 16,7 km/h (3 Bft)
19.05.2015 01:26 10,2 C 9,4 C 87 % 1004,5 hPa 0,0 l/m 0 min 2 min 0 W/m 14,6 km/h (3 Bft)
19.05.2015 01:28 10,2 C 9,4 C 87 % 1004,5 hPa 0,0 l/m 0 min 2 min 0 W/m 10,5 km/h (2 Bft)
19.05.2015 01:30 10,2 C 9,4 C 88 % 1004,5 hPa 0,0 l/m 0 min 2 min 0 W/m 14,6 km/h (3 Bft)
19.05.2015 01:32 10,1 C 9,4 C 88 % 1004,5 hPa 0,2 l/m 0 min 2 min 0 W/m 16,7 km/h (3 Bft)
19.05.2015 01:34 10,1 C 9,4 C 88 % 1004,4 hPa 0,0 l/m 0 min 2 min 0 W/m 16,7 km/h (3 Bft)
19.05.2015 01:36 10,0 C 9,4 C 88 % 1004,3 hPa 0,0 l/m 0 min 2 min 0 W/m 14,6 km/h (3 Bft)
19.05.2015 01:38 9,9 C 9,4 C 89 % 1004,3 hPa 0,0 l/m 0 min 2 min 0 W/m 23,0 km/h (4 Bft)
19.05.2015 01:40 9,8 C 8,9 C 88 % 1004,5 hPa 0,0 l/m 0 min 2 min 0 W/m 20,9 km/h (4 Bft)
19.05.2015 01:42 9,8 C 8,9 C 88 % 1004,6 hPa 0,0 l/m 0 min 2 min 0 W/m 23,0 km/h (4 Bft)
19.05.2015 01:44 9,7 C 8,9 C 88 % 1004,7 hPa 0,0 l/m 0 min 0 min 0 W/m 20,9 km/h (4 Bft)
19.05.2015 01:46 9,6 C 8,9 C 88 % 1004,7 hPa 0,0 l/m 0 min 0 min 0 W/m 18,8 km/h (3 Bft)
19.05.2015 01:48 9,6 C 8,9 C 88 % 1004,7 hPa 0,0 l/m 0 min 2 min 0 W/m 14,6 km/h (3 Bft)
19.05.2015 01:50 9,6 C 8,9 C 88 % 1004,8 hPa 0,0 l/m 0 min 2 min 0 W/m 20,9 km/h (4 Bft)
19.05.2015 01:52 9,5 C 8,9 C 88 % 1004,8 hPa 0,0 l/m 0 min 2 min 0 W/m 12,6 km/h (3 Bft)
19.05.2015 01:54 9,5 C 8,9 C 89 % 1004,7 hPa 0,0 l/m 0 min 0 min 0 W/m 18,8 km/h (3 Bft)
19.05.2015 01:56 9,5 C 8,9 C 89 % 1004,8 hPa 0,0 l/m 0 min 0 min 0 W/m 14,6 km/h (3 Bft)
19.05.2015 01:58 9,5 C 8,9 C 89 % 1004,4 hPa 0,0 l/m 0 min 0 min 0 W/m 10,5 km/h (2 Bft)
19.05.2015 02:00 9,6 C 8,9 C 89 % 1004,5 hPa 0,0 l/m 0 min 0 min 0 W/m 23,0 km/h (4 Bft)
19.05.2015 02:02 9,6 C 8,9 C 90 % 1004,6 hPa 0,0 l/m 0 min 0 min 0 W/m 16,7 km/h (3 Bft)
19.05.2015 02:04 9,6 C 8,9 C 90 % 1004,7 hPa 0,0 l/m 0 min 0 min 0 W/m 29,3 km/h (5 Bft)
19.05.2015 02:06 9,6 C 8,9 C 90 % 1004,5 hPa 0,0 l/m 0 min 0 min 0 W/m 18,8 km/h (3 Bft)
19.05.2015 02:08 9,6 C 8,9 C 90 % 1004,2 hPa 0,0 l/m 0 min 0 min 0 W/m 14,6 km/h (3 Bft)
19.05.2015 02:10 9,6 C 8,9 C 90 % 1004,0 hPa 0,0 l/m 0 min 0 min 0 W/m 14,6 km/h (3 Bft)
19.05.2015 02:12 9,6 C 8,9 C 90 % 1004,2 hPa 0,0 l/m 0 min 0 min 0 W/m 14,6 km/h (3 Bft)
19.05.2015 02:14 9,6 C 8,9 C 90 % 1004,4 hPa 0,0 l/m 0 min 0 min 0 W/m 14,6 km/h (3 Bft)
19.05.2015 02:16 9,6 C 8,9 C 90 % 1004,4 hPa 0,0 l/m 0 min 0 min 0 W/m 16,7 km/h (3 Bft)
19.05.2015 02:18 9,5 C 8,9 C 90 % 1004,3 hPa 0,0 l/m 0 min 0 min 0 W/m 14,6 km/h (3 Bft)
19.05.2015 02:20 9,5 C 8,9 C 90 % 1004,4 hPa 0,0 l/m 0 min 0 min 0 W/m 18,8 km/h (3 Bft)
19.05.2015 02:22 9,5 C 8,9 C 90 % 1004,4 hPa 0,0 l/m 0 min 0 min 0 W/m 12,6 km/h (3 Bft)
19.05.2015 02:24 9,4 C 8,9 C 89 % 1004,4 hPa 0,0 l/m 0 min 0 min 0 W/m 20,9 km/h (4 Bft)
19.05.2015 02:26 9,4 C 8,9 C 89 % 1004,4 hPa 0,0 l/m 0 min 0 min 0 W/m 16,7 km/h (3 Bft)
19.05.2015 02:28 9,4 C 8,9 C 89 % 1004,4 hPa 0,0 l/m 0 min 0 min 0 W/m 16,7 km/h (3 Bft)
19.05.2015 02:30 9,5 C 8,9 C 89 % 1004,4 hPa 0,0 l/m 0 min 0 min 0 W/m 12,6 km/h (3 Bft)
19.05.2015 02:32 9,4 C 8,9 C 89 % 1004,5 hPa 0,0 l/m 0 min 0 min 0 W/m 14,6 km/h (3 Bft)
19.05.2015 02:34 9,5 C 8,9 C 89 % 1004,4 hPa 0,0 l/m 0 min 0 min 0 W/m 16,7 km/h (3 Bft)
19.05.2015 02:36 9,5 C 8,9 C 89 % 1004,4 hPa 0,0 l/m 0 min 0 min 0 W/m 23,0 km/h (4 Bft)
19.05.2015 02:38 9,4 C 8,9 C 89 % 1004,4 hPa 0,0 l/m 0 min 0 min 0 W/m 16,7 km/h (3 Bft)
19.05.2015 02:40 9,4 C 8,9 C 89 % 1004,5 hPa 0,0 l/m 0 min 0 min 0 W/m 14,6 km/h (3 Bft)
19.05.2015 02:42 9,4 C 8,9 C 89 % 1004,4 hPa 0,0 l/m 0 min 0 min 0 W/m 14,6 km/h (3 Bft)
19.05.2015 02:44 9,4 C 8,9 C 89 % 1004,4 hPa 0,0 l/m 0 min 0 min 0 W/m 23,0 km/h (4 Bft)
19.05.2015 02:46 9,4 C 8,9 C 89 % 1004,4 hPa 0,0 l/m 0 min 0 min 0 W/m 18,8 km/h (3 Bft)
19.05.2015 02:48 9,4 C 8,9 C 89 % 1004,4 hPa 0,0 l/m 0 min 0 min 0 W/m 14,6 km/h (3 Bft)
19.05.2015 02:50 9,4 C 8,9 C 89 % 1004,5 hPa 0,0 l/m 0 min 0 min 0 W/m 18,8 km/h (3 Bft)
19.05.2015 02:52 9,3 C 8,9 C 89 % 1004,5 hPa 0,0 l/m 0 min 0 min 0 W/m 20,9 km/h (4 Bft)
19.05.2015 02:54 9,3 C 8,9 C 90 % 1004,5 hPa 0,0 l/m 0 min 0 min 0 W/m 18,8 km/h (3 Bft)
19.05.2015 02:56 9,3 C 8,9 C 90 % 1004,6 hPa 0,0 l/m 0 min 0 min 0 W/m 18,8 km/h (3 Bft)
19.05.2015 02:58 9,3 C 8,9 C 90 % 1004,5 hPa 0,0 l/m 0 min 0 min 0 W/m 18,8 km/h (3 Bft)
19.05.2015 03:00 9,3 C 8,9 C 90 % 1004,4 hPa 0,0 l/m 0 min 0 min 0 W/m 20,9 km/h (4 Bft)
19.05.2015 03:02 9,3 C 8,9 C 90 % 1004,4 hPa 0,0 l/m 0 min 0 min 0 W/m 20,9 km/h (4 Bft)
19.05.2015 03:04 9,3 C 8,9 C 90 % 1004,4 hPa 0,0 l/m 0 min 0 min 0 W/m 14,6 km/h (3 Bft)
19.05.2015 03:06 9,3 C 8,3 C 90 % 1004,4 hPa 0,0 l/m 0 min 0 min 0 W/m 16,7 km/h (3 Bft)
19.05.2015 03:08 9,3 C 8,3 C 90 % 1004,5 hPa 0,0 l/m 0 min 0 min 0 W/m 16,7 km/h (3 Bft)
19.05.2015 03:10 9,3 C 8,3 C 90 % 1004,4 hPa 0,0 l/m 0 min 0 min 0 W/m 14,6 km/h (3 Bft)
19.05.2015 03:12 9,3 C 8,3 C 90 % 1004,4 hPa 0,0 l/m 0 min 0 min 0 W/m 20,9 km/h (4 Bft)
19.05.2015 03:14 9,3 C 8,3 C 90 % 1004,4 hPa 0,0 l/m 0 min 0 min 0 W/m 27,2 km/h (4 Bft)
19.05.2015 03:16 9,2 C 8,3 C 90 % 1004,4 hPa 0,0 l/m 0 min 0 min 0 W/m 27,2 km/h (4 Bft)
19.05.2015 03:18 9,2 C 8,3 C 90 % 1004,5 hPa 0,0 l/m 0 min 0 min 0 W/m 31,4 km/h (5 Bft)
19.05.2015 03:20 9,2 C 8,3 C 90 % 1004,5 hPa 0,0 l/m 0 min 0 min 0 W/m 25,1 km/h (4 Bft)
19.05.2015 03:22 9,2 C 8,3 C 90 % 1004,5 hPa 0,0 l/m 0 min 0 min 0 W/m 23,0 km/h (4 Bft)
19.05.2015 03:24 9,2 C 8,3 C 90 % 1004,5 hPa 0,0 l/m 0 min 0 min 0 W/m 18,8 km/h (3 Bft)
19.05.2015 03:26 9,2 C 8,3 C 90 % 1004,5 hPa 0,0 l/m 0 min 0 min 0 W/m 20,9 km/h (4 Bft)
19.05.2015 03:28 9,2 C 8,3 C 90 % 1004,5 hPa 0,0 l/m 0 min 0 min 0 W/m 29,3 km/h (5 Bft)
19.05.2015 03:30 9,2 C 8,3 C 90 % 1004,5 hPa 0,0 l/m 0 min 0 min 0 W/m 29,3 km/h (5 Bft)
19.05.2015 03:32 9,1 C 8,3 C 90 % 1004,4 hPa 0,0 l/m 0 min 0 min 0 W/m 23,0 km/h (4 Bft)
19.05.2015 03:34 9,1 C 8,3 C 90 % 1004,4 hPa 0,0 l/m 0 min 0 min 0 W/m 25,1 km/h (4 Bft)
19.05.2015 03:36 9,1 C 8,3 C 90 % 1004,5 hPa 0,0 l/m 0 min 0 min 0 W/m 31,4 km/h (5 Bft)
19.05.2015 03:38 9,1 C 8,3 C 90 % 1004,4 hPa 0,0 l/m 0 min 0 min 0 W/m 35,6 km/h (5 Bft)
19.05.2015 03:40 9,1 C 8,3 C 89 % 1004,5 hPa 0,0 l/m 0 min 0 min 0 W/m 27,2 km/h (4 Bft)
19.05.2015 03:42 9,1 C 8,3 C 89 % 1004,5 hPa 0,0 l/m 0 min 0 min 0 W/m 25,1 km/h (4 Bft)
19.05.2015 03:44 9,1 C 8,3 C 89 % 1004,4 hPa 0,0 l/m 0 min 0 min 0 W/m 31,4 km/h (5 Bft)
19.05.2015 03:46 9,1 C 8,3 C 89 % 1004,5 hPa 0,0 l/m 0 min 0 min 0 W/m 23,0 km/h (4 Bft)
19.05.2015 03:48 9,1 C 8,3 C 89 % 1004,4 hPa 0,0 l/m 0 min 0 min 0 W/m 31,4 km/h (5 Bft)
19.05.2015 03:50 9,1 C 8,3 C 89 % 1004,5 hPa 0,0 l/m 0 min 0 min 0 W/m 16,7 km/h (3 Bft)
19.05.2015 03:52 9,1 C 8,3 C 89 % 1004,4 hPa 0,0 l/m 0 min 0 min 0 W/m 25,1 km/h (4 Bft)
19.05.2015 03:54 9,1 C 8,3 C 88 % 1004,4 hPa 0,0 l/m 0 min 0 min 0 W/m 18,8 km/h (3 Bft)
19.05.2015 03:56 9,1 C 8,3 C 88 % 1004,5 hPa 0,0 l/m 0 min 0 min 0 W/m 20,9 km/h (4 Bft)
19.05.2015 03:58 9,1 C 8,3 C 88 % 1004,5 hPa 0,0 l/m 0 min 0 min 0 W/m 20,9 km/h (4 Bft)
19.05.2015 04:00 9,1 C 8,3 C 88 % 1004,5 hPa 0,0 l/m 0 min 0 min 0 W/m 23,0 km/h (4 Bft)
19.05.2015 04:02 9,1 C 8,3 C 88 % 1004,5 hPa 0,0 l/m 0 min 0 min 0 W/m 18,8 km/h (3 Bft)
19.05.2015 04:04 9,0 C 8,3 C 88 % 1004,5 hPa 0,0 l/m 0 min 0 min 0 W/m 18,8 km/h (3 Bft)
19.05.2015 04:06 9,0 C 8,3 C 88 % 1004,5 hPa 0,0 l/m 0 min 0 min 0 W/m 20,9 km/h (4 Bft)
19.05.2015 04:08 9,0 C 8,3 C 88 % 1004,5 hPa 0,0 l/m 0 min 0 min 0 W/m 12,6 km/h (3 Bft)
19.05.2015 04:10 8,9 C 8,3 C 88 % 1004,5 hPa 0,0 l/m 0 min 0 min 0 W/m 18,8 km/h (3 Bft)
19.05.2015 04:12 8,9 C 8,3 C 88 % 1004,4 hPa 0,0 l/m 0 min 0 min 0 W/m 16,7 km/h (3 Bft)
19.05.2015 04:14 8,9 C 8,3 C 88 % 1004,5 hPa 0,0 l/m 0 min 0 min 0 W/m 16,7 km/h (3 Bft)
19.05.2015 04:16 8,9 C 8,3 C 88 % 1004,5 hPa 0,0 l/m 0 min 0 min 0 W/m 25,1 km/h (4 Bft)
19.05.2015 04:18 8,9 C 8,3 C 88 % 1004,5 hPa 0,0 l/m 0 min 0 min 0 W/m 18,8 km/h (3 Bft)
19.05.2015 04:20 8,8 C 8,3 C 88 % 1004,5 hPa 0,0 l/m 0 min 0 min 0 W/m 16,7 km/h (3 Bft)
19.05.2015 04:22 8,8 C 8,3 C 88 % 1004,5 hPa 0,0 l/m 0 min 0 min 0 W/m 18,8 km/h (3 Bft)
19.05.2015 04:24 8,8 C 8,3 C 88 % 1004,5 hPa 0,0 l/m 0 min 0 min 0 W/m 16,7 km/h (3 Bft)
19.05.2015 04:26 8,7 C 7,8 C 88 % 1004,5 hPa 0,0 l/m 0 min 0 min 0 W/m 25,1 km/h (4 Bft)
19.05.2015 04:28 8,7 C 7,8 C 88 % 1004,5 hPa 0,0 l/m 0 min 0 min 0 W/m 16,7 km/h (3 Bft)
19.05.2015 04:30 8,7 C 7,8 C 88 % 1004,4 hPa 0,0 l/m 0 min 0 min 0 W/m 16,7 km/h (3 Bft)
19.05.2015 04:32 8,7 C 7,8 C 88 % 1004,5 hPa 0,0 l/m 0 min 0 min 0 W/m 18,8 km/h (3 Bft)
19.05.2015 04:34 8,7 C 7,8 C 88 % 1004,5 hPa 0,0 l/m 0 min 0 min 0 W/m 16,7 km/h (3 Bft)
19.05.2015 04:36 8,6 C 7,8 C 88 % 1004,5 hPa 0,0 l/m 0 min 0 min 0 W/m 20,9 km/h (4 Bft)
19.05.2015 04:38 8,6 C 7,8 C 88 % 1004,6 hPa 0,0 l/m 0 min 0 min 0 W/m 18,8 km/h (3 Bft)
19.05.2015 04:40 8,6 C 7,8 C 88 % 1004,6 hPa 0,0 l/m 0 min 0 min 0 W/m 20,9 km/h (4 Bft)
19.05.2015 04:42 8,6 C 7,8 C 88 % 1004,6 hPa 0,0 l/m 0 min 0 min 0 W/m 18,8 km/h (3 Bft)
19.05.2015 04:44 8,6 C 7,8 C 88 % 1004,5 hPa 0,0 l/m 0 min 0 min 0 W/m 20,9 km/h (4 Bft)
19.05.2015 04:46 8,6 C 7,8 C 88 % 1004,6 hPa 0,0 l/m 0 min 0 min 0 W/m 20,9 km/h (4 Bft)
19.05.2015 04:48 8,6 C 7,8 C 88 % 1004,6 hPa 0,0 l/m 0 min 0 min 0 W/m 20,9 km/h (4 Bft)
19.05.2015 04:50 8,6 C 7,8 C 88 % 1004,6 hPa 0,0 l/m 0 min 0 min 0 W/m 23,0 km/h (4 Bft)
19.05.2015 04:52 8,6 C 7,8 C 89 % 1004,6 hPa 0,0 l/m 0 min 0 min 0 W/m 35,6 km/h (5 Bft)
19.05.2015 04:54 8,6 C 7,8 C 88 % 1004,6 hPa 0,0 l/m 0 min 0 min 0 W/m 18,8 km/h (3 Bft)
19.05.2015 04:56 8,6 C 7,8 C 88 % 1004,6 hPa 0,0 l/m 0 min 0 min 0 W/m 27,2 km/h (4 Bft)
19.05.2015 04:58 8,6 C 7,8 C 88 % 1004,6 hPa 0,0 l/m 0 min 0 min 0 W/m 25,1 km/h (4 Bft)
19.05.2015 05:00 8,6 C 7,8 C 88 % 1004,6 hPa 0,0 l/m 0 min 0 min 0 W/m 16,7 km/h (3 Bft)
19.05.2015 05:02 8,6 C 7,8 C 88 % 1004,6 hPa 0,0 l/m 0 min 0 min 0 W/m 20,9 km/h (4 Bft)
19.05.2015 05:04 8,5 C 7,8 C 88 % 1004,6 hPa 0,0 l/m 0 min 0 min 0 W/m 23,0 km/h (4 Bft)
19.05.2015 05:06 8,5 C 7,8 C 88 % 1004,6 hPa 0,0 l/m 0 min 0 min 0 W/m 33,5 km/h (5 Bft)
19.05.2015 05:08 8,5 C 7,8 C 88 % 1004,6 hPa 0,0 l/m 0 min 0 min 0 W/m 31,4 km/h (5 Bft)
19.05.2015 05:10 8,5 C 7,8 C 88 % 1004,6 hPa 0,0 l/m 0 min 0 min 0 W/m 20,9 km/h (4 Bft)
19.05.2015 05:12 8,5 C 7,8 C 88 % 1004,6 hPa 0,0 l/m 0 min 0 min 0 W/m 16,7 km/h (3 Bft)
19.05.2015 05:14 8,4 C 7,8 C 88 % 1004,6 hPa 0,0 l/m 0 min 0 min 0 W/m 29,3 km/h (5 Bft)
19.05.2015 05:16 8,4 C 7,8 C 89 % 1004,6 hPa 0,0 l/m 0 min 0 min 0 W/m 20,9 km/h (4 Bft)
19.05.2015 05:18 8,4 C 7,8 C 89 % 1004,7 hPa 0,0 l/m 0 min 0 min 0 W/m 20,9 km/h (4 Bft)
19.05.2015 05:20 8,4 C 7,8 C 89 % 1004,7 hPa 0,0 l/m 0 min 0 min 0 W/m 23,0 km/h (4 Bft)
19.05.2015 05:22 8,4 C 7,8 C 89 % 1004,7 hPa 0,0 l/m 0 min 0 min 0 W/m 20,9 km/h (4 Bft)
19.05.2015 05:24 8,4 C 7,8 C 89 % 1004,7 hPa 0,0 l/m 0 min 0 min 0 W/m 20,9 km/h (4 Bft)
19.05.2015 05:26 8,4 C 7,8 C 89 % 1004,6 hPa 0,0 l/m 0 min 0 min 0 W/m 29,3 km/h (5 Bft)
19.05.2015 05:28 8,4 C 7,8 C 89 % 1004,6 hPa 0,0 l/m 0 min 0 min 0 W/m 18,8 km/h (3 Bft)
19.05.2015 05:30 8,3 C 7,8 C 89 % 1004,7 hPa 0,0 l/m 0 min 0 min 0 W/m 23,0 km/h (4 Bft)
19.05.2015 05:32 8,3 C 7,8 C 89 % 1004,7 hPa 0,0 l/m 0 min 0 min 0 W/m 20,9 km/h (4 Bft)
19.05.2015 05:34 8,3 C 7,8 C 89 % 1004,8 hPa 0,0 l/m 0 min 0 min 0 W/m 20,9 km/h (4 Bft)
19.05.2015 05:36 8,4 C 7,8 C 89 % 1004,8 hPa 0,0 l/m 0 min 0 min 0 W/m 20,9 km/h (4 Bft)
19.05.2015 05:38 8,4 C 7,8 C 89 % 1004,7 hPa 0,0 l/m 0 min 0 min 2 W/m 18,8 km/h (3 Bft)
19.05.2015 05:40 8,4 C 7,8 C 89 % 1004,8 hPa 0,0 l/m 0 min 0 min 5 W/m 20,9 km/h (4 Bft)
19.05.2015 05:42 8,4 C 7,8 C 89 % 1004,8 hPa 0,0 l/m 0 min 0 min 5 W/m 27,2 km/h (4 Bft)
19.05.2015 05:44 8,5 C 7,8 C 89 % 1004,8 hPa 0,0 l/m 0 min 0 min 6 W/m 23,0 km/h (4 Bft)
19.05.2015 05:46 8,5 C 7,8 C 89 % 1004,8 hPa 0,0 l/m 0 min 0 min 7 W/m 16,7 km/h (3 Bft)
19.05.2015 05:48 8,6 C 8,3 C 89 % 1004,9 hPa 0,0 l/m 0 min 0 min 7 W/m 18,8 km/h (3 Bft)
19.05.2015 05:50 8,6 C 7,8 C 89 % 1004,9 hPa 0,0 l/m 0 min 0 min 9 W/m 20,9 km/h (4 Bft)
19.05.2015 05:52 8,6 C 8,3 C 89 % 1004,9 hPa 0,0 l/m 0 min 0 min 11 W/m 27,2 km/h (4 Bft)
19.05.2015 05:54 8,7 C 7,8 C 89 % 1004,9 hPa 0,0 l/m 0 min 0 min 13 W/m 25,1 km/h (4 Bft)
19.05.2015 05:56 8,7 C 8,3 C 89 % 1004,9 hPa 0,0 l/m 0 min 0 min 13 W/m 23,0 km/h (4 Bft)
19.05.2015 05:58 8,7 C 8,3 C 88 % 1004,9 hPa 0,0 l/m 0 min 0 min 13 W/m 12,6 km/h (3 Bft)
19.05.2015 06:00 8,7 C 8,3 C 88 % 1004,9 hPa 0,0 l/m 0 min 0 min 12 W/m 20,9 km/h (4 Bft)
19.05.2015 06:02 8,8 C 8,3 C 88 % 1004,9 hPa 0,0 l/m 0 min 0 min 13 W/m 25,1 km/h (4 Bft)
19.05.2015 06:06 8,8 C 8,3 C 88 % 1005,0 hPa 0,0 l/m 0 min 0 min 15 W/m 20,9 km/h (4 Bft)
19.05.2015 06:08 8,8 C 8,3 C 88 % 1005,0 hPa 0,0 l/m 0 min 0 min 18 W/m 23,0 km/h (4 Bft)
19.05.2015 06:10 8,9 C 8,3 C 88 % 1005,0 hPa 0,0 l/m 0 min 0 min 18 W/m 25,1 km/h (4 Bft)
19.05.2015 06:12 8,9 C 8,3 C 88 % 1005,0 hPa 0,0 l/m 0 min 0 min 19 W/m 14,6 km/h (3 Bft)
19.05.2015 06:14 8,9 C 8,3 C 87 % 1005,0 hPa 0,0 l/m 0 min 0 min 18 W/m 23,0 km/h (4 Bft)
19.05.2015 06:16 8,9 C 8,3 C 88 % 1005,0 hPa 0,0 l/m 0 min 0 min 19 W/m 16,7 km/h (3 Bft)
19.05.2015 06:18 8,9 C 8,3 C 87 % 1005,0 hPa 0,0 l/m 0 min 0 min 19 W/m 25,1 km/h (4 Bft)
19.05.2015 06:20 9,0 C 8,3 C 87 % 1005,0 hPa 0,0 l/m 0 min 0 min 18 W/m 20,9 km/h (4 Bft)
19.05.2015 06:22 9,0 C 8,3 C 87 % 1005,1 hPa 0,0 l/m 0 min 0 min 20 W/m 14,6 km/h (3 Bft)
19.05.2015 06:24 9,0 C 8,3 C 87 % 1005,1 hPa 0,0 l/m 0 min 0 min 23 W/m 18,8 km/h (3 Bft)
19.05.2015 06:26 9,0 C 8,3 C 87 % 1005,1 hPa 0,0 l/m 0 min 0 min 25 W/m 16,7 km/h (3 Bft)
19.05.2015 06:28 9,0 C 8,3 C 87 % 1005,2 hPa 0,0 l/m 0 min 0 min 28 W/m 25,1 km/h (4 Bft)
19.05.2015 06:30 9,0 C 8,3 C 87 % 1005,1 hPa 0,0 l/m 0 min 0 min 24 W/m 18,8 km/h (3 Bft)
19.05.2015 06:32 9,0 C 8,3 C 87 % 1005,2 hPa 0,0 l/m 0 min 0 min 22 W/m 16,7 km/h (3 Bft)
19.05.2015 06:34 9,0 C 8,3 C 87 % 1005,1 hPa 0,0 l/m 0 min 0 min 25 W/m 25,1 km/h (4 Bft)
19.05.2015 06:36 9,0 C 8,3 C 87 % 1005,2 hPa 0,0 l/m 0 min 0 min 31 W/m 18,8 km/h (3 Bft)
19.05.2015 06:38 9,0 C 8,3 C 87 % 1005,2 hPa 0,0 l/m 0 min 0 min 36 W/m 14,6 km/h (3 Bft)
19.05.2015 06:40 9,0 C 8,3 C 87 % 1005,3 hPa 0,0 l/m 0 min 0 min 35 W/m 18,8 km/h (3 Bft)
19.05.2015 06:42 9,0 C 8,3 C 87 % 1005,3 hPa 0,0 l/m 0 min 0 min 35 W/m 41,8 km/h (6 Bft)
19.05.2015 06:44 9,0 C 8,3 C 87 % 1005,4 hPa 0,0 l/m 0 min 0 min 38 W/m 27,2 km/h (4 Bft)
19.05.2015 06:46 9,0 C 8,3 C 87 % 1005,4 hPa 0,0 l/m 0 min 0 min 34 W/m 29,3 km/h (5 Bft)
19.05.2015 06:48 9,0 C 8,3 C 87 % 1005,4 hPa 0,0 l/m 0 min 0 min 36 W/m 18,8 km/h (3 Bft)
19.05.2015 06:50 9,0 C 8,3 C 87 % 1005,3 hPa 0,0 l/m 0 min 0 min 45 W/m 18,8 km/h (3 Bft)
19.05.2015 06:52 9,0 C 8,3 C 87 % 1005,3 hPa 0,0 l/m 0 min 0 min 51 W/m 18,8 km/h (3 Bft)
19.05.2015 06:54 9,0 C 8,3 C 87 % 1005,4 hPa 0,0 l/m 0 min 0 min 59 W/m 23,0 km/h (4 Bft)
19.05.2015 06:56 9,0 C 8,3 C 87 % 1005,4 hPa 0,0 l/m 0 min 0 min 56 W/m 23,0 km/h (4 Bft)
19.05.2015 06:58 9,0 C 8,3 C 87 % 1005,4 hPa 0,0 l/m 0 min 0 min 57 W/m 23,0 km/h (4 Bft)
19.05.2015 07:00 8,9 C 8,3 C 87 % 1005,4 hPa 0,0 l/m 0 min 0 min 56 W/m 20,9 km/h (4 Bft)
19.05.2015 07:02 8,9 C 8,3 C 87 % 1005,4 hPa 0,0 l/m 0 min 0 min 54 W/m 14,6 km/h (3 Bft)
19.05.2015 07:04 8,9 C 8,3 C 87 % 1005,4 hPa 0,0 l/m 0 min 0 min 55 W/m 18,8 km/h (3 Bft)
19.05.2015 07:06 8,9 C 8,3 C 87 % 1005,4 hPa 0,0 l/m 0 min 0 min 63 W/m 27,2 km/h (4 Bft)
19.05.2015 07:08 8,8 C 8,3 C 87 % 1005,4 hPa 0,0 l/m 2 min 0 min 117 W/m 27,2 km/h (4 Bft)
19.05.2015 07:10 8,8 C 7,8 C 87 % 1005,4 hPa 0,0 l/m 2 min 0 min 145 W/m 27,2 km/h (4 Bft)
19.05.2015 07:12 8,8 C 8,3 C 87 % 1005,4 hPa 0,0 l/m 2 min 0 min 153 W/m 18,8 km/h (3 Bft)
19.05.2015 07:14 8,9 C 7,8 C 87 % 1005,5 hPa 0,0 l/m 2 min 0 min 168 W/m 29,3 km/h (5 Bft)
19.05.2015 07:16 8,9 C 7,8 C 87 % 1005,5 hPa 0,0 l/m 2 min 0 min 140 W/m 20,9 km/h (4 Bft)
19.05.2015 07:18 8,9 C 7,8 C 87 % 1005,5 hPa 0,0 l/m 2 min 0 min 155 W/m 27,2 km/h (4 Bft)
19.05.2015 07:20 8,9 C 8,3 C 87 % 1005,5 hPa 0,0 l/m 2 min 0 min 172 W/m 20,9 km/h (4 Bft)
19.05.2015 07:22 8,9 C 7,8 C 87 % 1005,6 hPa 0,0 l/m 2 min 0 min 132 W/m 31,4 km/h (5 Bft)
19.05.2015 07:24 8,9 C 8,3 C 86 % 1005,6 hPa 0,0 l/m 2 min 0 min 184 W/m 20,9 km/h (4 Bft)
19.05.2015 07:26 9,0 C 8,3 C 86 % 1005,6 hPa 0,0 l/m 2 min 0 min 197 W/m 20,9 km/h (4 Bft)
19.05.2015 07:28 9,0 C 8,3 C 86 % 1005,6 hPa 0,0 l/m 2 min 0 min 196 W/m 20,9 km/h (4 Bft)
19.05.2015 07:30 9,0 C 8,3 C 86 % 1005,6 hPa 0,0 l/m 2 min 0 min 216 W/m 16,7 km/h (3 Bft)
19.05.2015 07:32 9,1 C 8,3 C 87 % 1005,6 hPa 0,0 l/m 2 min 0 min 219 W/m 20,9 km/h (4 Bft)
19.05.2015 07:34 9,1 C 8,3 C 86 % 1005,6 hPa 0,0 l/m 2 min 0 min 155 W/m 29,3 km/h (5 Bft)
19.05.2015 07:36 9,1 C 8,3 C 86 % 1005,7 hPa 0,0 l/m 2 min 0 min 229 W/m 29,3 km/h (5 Bft)
19.05.2015 07:38 9,1 C 8,3 C 86 % 1005,6 hPa 0,0 l/m 2 min 0 min 268 W/m 31,4 km/h (5 Bft)
19.05.2015 07:40 9,2 C 8,3 C 86 % 1005,8 hPa 0,0 l/m 2 min 0 min 184 W/m 23,0 km/h (4 Bft)
19.05.2015 07:42 9,2 C 8,3 C 86 % 1005,7 hPa 0,0 l/m 0 min 0 min 121 W/m 25,1 km/h (4 Bft)
19.05.2015 07:44 9,3 C 8,9 C 86 % 1005,7 hPa 0,0 l/m 0 min 0 min 137 W/m 27,2 km/h (4 Bft)
19.05.2015 07:46 9,3 C 8,9 C 85 % 1005,6 hPa 0,0 l/m 2 min 0 min 154 W/m 37,7 km/h (5 Bft)
19.05.2015 07:48 9,3 C 8,9 C 85 % 1005,7 hPa 0,0 l/m 0 min 0 min 135 W/m 20,9 km/h (4 Bft)
19.05.2015 07:50 9,4 C 8,9 C 85 % 1005,7 hPa 0,0 l/m 0 min 0 min 125 W/m 23,0 km/h (4 Bft)
19.05.2015 07:52 9,4 C 8,9 C 85 % 1005,7 hPa 0,0 l/m 0 min 0 min 126 W/m 29,3 km/h (5 Bft)
19.05.2015 07:54 9,4 C 8,9 C 85 % 1005,7 hPa 0,0 l/m 2 min 0 min 176 W/m 37,7 km/h (5 Bft)
19.05.2015 07:56 9,4 C 8,9 C 85 % 1005,7 hPa 0,0 l/m 2 min 0 min 171 W/m 35,6 km/h (5 Bft)
19.05.2015 07:58 9,4 C 8,9 C 85 % 1005,8 hPa 0,0 l/m 0 min 0 min 135 W/m 23,0 km/h (4 Bft)
19.05.2015 08:00 9,4 C 8,9 C 85 % 1005,8 hPa 0,0 l/m 0 min 0 min 107 W/m 18,8 km/h (3 Bft)
19.05.2015 08:02 9,4 C 8,9 C 85 % 1005,7 hPa 0,0 l/m 0 min 0 min 99 W/m 27,2 km/h (4 Bft)
19.05.2015 08:04 9,4 C 8,9 C 85 % 1005,7 hPa 0,0 l/m 0 min 0 min 116 W/m 20,9 km/h (4 Bft)
19.05.2015 08:06 9,4 C 8,9 C 84 % 1005,8 hPa 0,0 l/m 0 min 0 min 139 W/m 27,2 km/h (4 Bft)
19.05.2015 08:08 9,4 C 8,9 C 85 % 1005,7 hPa 0,0 l/m 0 min 0 min 153 W/m 20,9 km/h (4 Bft)
19.05.2015 08:10 9,4 C 8,9 C 85 % 1005,8 hPa 0,0 l/m 0 min 0 min 109 W/m 18,8 km/h (3 Bft)
19.05.2015 08:12 9,4 C 8,9 C 84 % 1005,8 hPa 0,0 l/m 2 min 0 min 223 W/m 27,2 km/h (4 Bft)
19.05.2015 08:14 9,5 C 8,9 C 84 % 1005,7 hPa 0,0 l/m 2 min 0 min 332 W/m 29,3 km/h (5 Bft)
19.05.2015 08:16 9,5 C 8,9 C 84 % 1005,7 hPa 0,0 l/m 0 min 0 min 158 W/m 23,0 km/h (4 Bft)
19.05.2015 08:18 9,6 C 8,9 C 84 % 1005,8 hPa 0,0 l/m 2 min 0 min 342 W/m 23,0 km/h (4 Bft)
19.05.2015 08:20 9,6 C 8,9 C 84 % 1005,8 hPa 0,0 l/m 2 min 0 min 365 W/m 25,1 km/h (4 Bft)
19.05.2015 08:22 9,7 C 8,9 C 84 % 1005,8 hPa 0,0 l/m 2 min 0 min 393 W/m 23,0 km/h (4 Bft)
19.05.2015 08:24 9,7 C 8,9 C 84 % 1005,8 hPa 0,0 l/m 2 min 0 min 247 W/m 18,8 km/h (3 Bft)
19.05.2015 08:26 9,8 C 8,9 C 83 % 1005,8 hPa 0,0 l/m 0 min 0 min 120 W/m 27,2 km/h (4 Bft)
19.05.2015 08:28 9,8 C 8,9 C 83 % 1005,8 hPa 0,0 l/m 0 min 0 min 130 W/m 35,6 km/h (5 Bft)
19.05.2015 08:30 9,8 C 8,9 C 83 % 1005,8 hPa 0,0 l/m 0 min 0 min 117 W/m 37,7 km/h (5 Bft)
19.05.2015 08:32 9,8 C 8,9 C 82 % 1005,8 hPa 0,0 l/m 0 min 0 min 116 W/m 33,5 km/h (5 Bft)
19.05.2015 08:34 9,8 C 8,9 C 82 % 1005,9 hPa 0,0 l/m 2 min 0 min 250 W/m 41,8 km/h (6 Bft)
19.05.2015 08:36 9,9 C 8,9 C 82 % 1005,8 hPa 0,0 l/m 2 min 0 min 280 W/m 37,7 km/h (5 Bft)
19.05.2015 08:38 9,9 C 8,9 C 82 % 1006,0 hPa 0,0 l/m 0 min 0 min 146 W/m 33,5 km/h (5 Bft)
19.05.2015 08:40 10,0 C 8,9 C 82 % 1006,1 hPa 0,0 l/m 0 min 0 min 186 W/m 31,4 km/h (5 Bft)
19.05.2015 08:42 10,1 C 8,9 C 81 % 1006,0 hPa 0,0 l/m 2 min 0 min 368 W/m 33,5 km/h (5 Bft)
19.05.2015 08:44 10,2 C 8,9 C 81 % 1006,0 hPa 0,0 l/m 2 min 0 min 377 W/m 31,4 km/h (5 Bft)
19.05.2015 08:46 10,2 C 8,9 C 81 % 1006,1 hPa 0,0 l/m 2 min 0 min 288 W/m 35,6 km/h (5 Bft)
19.05.2015 08:48 10,3 C 8,9 C 81 % 1006,0 hPa 0,0 l/m 2 min 0 min 439 W/m 33,5 km/h (5 Bft)
19.05.2015 08:50 10,3 C 9,4 C 80 % 1006,0 hPa 0,0 l/m 2 min 0 min 433 W/m 25,1 km/h (4 Bft)
19.05.2015 08:52 10,4 C 9,4 C 80 % 1006,0 hPa 0,0 l/m 2 min 0 min 501 W/m 23,0 km/h (4 Bft)
19.05.2015 08:54 10,6 C 9,4 C 80 % 1006,0 hPa 0,0 l/m 2 min 0 min 549 W/m 27,2 km/h (4 Bft)
19.05.2015 08:56 10,7 C 9,4 C 79 % 1006,1 hPa 0,0 l/m 2 min 0 min 496 W/m 33,5 km/h (5 Bft)
19.05.2015 08:58 10,7 C 9,4 C 78 % 1006,0 hPa 0,0 l/m 2 min 0 min 266 W/m 33,5 km/h (5 Bft)
19.05.2015 09:00 10,7 C 9,4 C 78 % 1005,9 hPa 0,0 l/m 2 min 0 min 287 W/m 29,3 km/h (5 Bft)
19.05.2015 09:02 10,7 C 10,0 C 78 % 1005,9 hPa 0,0 l/m 2 min 0 min 507 W/m 23,0 km/h (4 Bft)
19.05.2015 09:04 10,8 C 10,0 C 79 % 1006,0 hPa 0,0 l/m 2 min 0 min 279 W/m 25,1 km/h (4 Bft)
19.05.2015 09:06 10,8 C 10,0 C 79 % 1006,0 hPa 0,0 l/m 0 min 0 min 189 W/m 25,1 km/h (4 Bft)
19.05.2015 09:08 10,8 C 10,0 C 79 % 1006,1 hPa 0,0 l/m 0 min 0 min 190 W/m 23,0 km/h (4 Bft)
19.05.2015 09:10 10,8 C 10,0 C 79 % 1005,9 hPa 0,0 l/m 0 min 0 min 199 W/m 23,0 km/h (4 Bft)
19.05.2015 09:12 10,9 C 10,0 C 79 % 1006,0 hPa 0,0 l/m 0 min 0 min 199 W/m 23,0 km/h (4 Bft)
19.05.2015 09:14 10,9 C 10,0 C 78 % 1006,1 hPa 0,0 l/m 0 min 0 min 162 W/m 33,5 km/h (5 Bft)
19.05.2015 09:16 10,8 C 10,0 C 77 % 1006,0 hPa 0,0 l/m 0 min 0 min 200 W/m 29,3 km/h (5 Bft)
19.05.2015 09:18 10,8 C 10,0 C 77 % 1005,9 hPa 0,0 l/m 0 min 0 min 216 W/m 31,4 km/h (5 Bft)
19.05.2015 09:20 10,9 C 10,0 C 78 % 1006,1 hPa 0,0 l/m 2 min 0 min 483 W/m 27,2 km/h (4 Bft)
19.05.2015 09:22 11,0 C 10,0 C 78 % 1006,1 hPa 0,0 l/m 0 min 0 min 245 W/m 33,5 km/h (5 Bft)
19.05.2015 09:24 11,1 C 10,0 C 77 % 1006,1 hPa 0,0 l/m 2 min 0 min 496 W/m 27,2 km/h (4 Bft)
19.05.2015 09:26 11,2 C 10,0 C 77 % 1006,1 hPa 0,0 l/m 2 min 0 min 329 W/m 27,2 km/h (4 Bft)
19.05.2015 09:28 11,2 C 10,0 C 76 % 1005,9 hPa 0,0 l/m 0 min 0 min 221 W/m 37,7 km/h (5 Bft)
19.05.2015 09:30 11,2 C 10,6 C 76 % 1006,1 hPa 0,0 l/m 2 min 0 min 500 W/m 37,7 km/h (5 Bft)
19.05.2015 09:32 11,3 C 10,0 C 75 % 1006,1 hPa 0,0 l/m 2 min 0 min 461 W/m 43,9 km/h (6 Bft)
19.05.2015 09:34 11,2 C 10,6 C 75 % 1006,1 hPa 0,0 l/m 0 min 0 min 148 W/m 35,6 km/h (5 Bft)
19.05.2015 09:36 11,3 C 11,1 C 76 % 1005,9 hPa 0,0 l/m 2 min 0 min 487 W/m 27,2 km/h (4 Bft)
19.05.2015 09:38 11,4 C 12,2 C 76 % 1006,0 hPa 0,0 l/m 2 min 0 min 673 W/m 35,6 km/h (5 Bft)
19.05.2015 09:40 11,7 C 12,8 C 76 % 1006,0 hPa 0,0 l/m 2 min 0 min 694 W/m 29,3 km/h (5 Bft)
19.05.2015 09:42 11,9 C 12,8 C 75 % 1006,0 hPa 0,0 l/m 2 min 0 min 695 W/m 31,4 km/h (5 Bft)
19.05.2015 09:44 12,1 C 12,8 C 73 % 1006,0 hPa 0,0 l/m 2 min 0 min 646 W/m 31,4 km/h (5 Bft)
19.05.2015 09:46 12,1 C 12,2 C 73 % 1006,0 hPa 0,0 l/m 2 min 0 min 494 W/m 25,1 km/h (4 Bft)
19.05.2015 09:48 12,1 C 12,2 C 72 % 1006,0 hPa 0,0 l/m 2 min 0 min 554 W/m 41,8 km/h (6 Bft)
19.05.2015 09:50 12,1 C 12,2 C 71 % 1006,1 hPa 0,0 l/m 2 min 0 min 676 W/m 31,4 km/h (5 Bft)
19.05.2015 09:52 12,2 C 12,2 C 71 % 1006,1 hPa 0,0 l/m 2 min 0 min 706 W/m 33,5 km/h (5 Bft)
19.05.2015 09:54 12,2 C 11,7 C 71 % 1006,0 hPa 0,0 l/m 2 min 0 min 631 W/m 33,5 km/h (5 Bft)
19.05.2015 09:56 12,2 C 11,7 C 71 % 1006,1 hPa 0,0 l/m 2 min 0 min 516 W/m 29,3 km/h (5 Bft)
19.05.2015 09:58 12,2 C 11,1 C 70 % 1006,1 hPa 0,0 l/m 2 min 0 min 656 W/m 33,5 km/h (5 Bft)
19.05.2015 10:00 12,3 C 11,1 C 71 % 1006,2 hPa 0,0 l/m 2 min 0 min 652 W/m 25,1 km/h (4 Bft)
19.05.2015 10:02 12,3 C 11,1 C 71 % 1006,1 hPa 0,0 l/m 2 min 0 min 642 W/m 37,7 km/h (5 Bft)
19.05.2015 10:04 12,2 C 10,6 C 71 % 1006,2 hPa 0,0 l/m 2 min 0 min 353 W/m 37,7 km/h (5 Bft)
19.05.2015 10:06 12,1 C 10,6 C 71 % 1006,2 hPa 0,0 l/m 0 min 0 min 128 W/m 37,7 km/h (5 Bft)
19.05.2015 10:08 11,9 C 10,6 C 71 % 1006,1 hPa 0,0 l/m 0 min 0 min 128 W/m 27,2 km/h (4 Bft)
19.05.2015 10:10 11,9 C 10,6 C 72 % 1006,1 hPa 0,0 l/m 0 min 0 min 128 W/m 33,5 km/h (5 Bft)
19.05.2015 10:12 11,9 C 11,1 C 72 % 1006,1 hPa 0,0 l/m 0 min 0 min 128 W/m 31,4 km/h (5 Bft)
19.05.2015 10:14 12,1 C 11,1 C 72 % 1006,1 hPa 0,0 l/m 2 min 0 min 640 W/m 33,5 km/h (5 Bft)
19.05.2015 10:16 12,0 C 11,1 C 71 % 1006,1 hPa 0,0 l/m 0 min 0 min 198 W/m 29,3 km/h (5 Bft)
19.05.2015 10:18 12,0 C 11,7 C 72 % 1006,1 hPa 0,0 l/m 0 min 0 min 188 W/m 23,0 km/h (4 Bft)
19.05.2015 10:20 12,1 C 11,7 C 71 % 1006,2 hPa 0,0 l/m 0 min 0 min 188 W/m 29,3 km/h (5 Bft)
19.05.2015 10:22 12,2 C 11,7 C 72 % 1006,2 hPa 0,0 l/m 0 min 0 min 194 W/m 37,7 km/h (5 Bft)
19.05.2015 10:24 12,1 C 11,1 C 71 % 1006,3 hPa 0,0 l/m 0 min 0 min 184 W/m 39,7 km/h (6 Bft)
19.05.2015 10:26 12,0 C 11,1 C 71 % 1006,3 hPa 0,0 l/m 0 min 0 min 262 W/m 31,4 km/h (5 Bft)
19.05.2015 10:28 11,9 C 11,1 C 72 % 1006,3 hPa 0,0 l/m 0 min 0 min 318 W/m 31,4 km/h (5 Bft)
19.05.2015 10:30 11,9 C 11,1 C 72 % 1006,3 hPa 0,0 l/m 0 min 0 min 286 W/m 35,6 km/h (5 Bft)
19.05.2015 10:32 12,0 C 11,7 C 73 % 1006,3 hPa 0,0 l/m 0 min 0 min 278 W/m 25,1 km/h (4 Bft)
19.05.2015 10:34 12,2 C 11,7 C 73 % 1006,3 hPa 0,0 l/m 0 min 0 min 285 W/m 35,6 km/h (5 Bft)
19.05.2015 10:36 12,3 C 11,7 C 72 % 1006,2 hPa 0,0 l/m 0 min 0 min 329 W/m 31,4 km/h (5 Bft)
19.05.2015 10:38 12,3 C 11,7 C 71 % 1006,3 hPa 0,0 l/m 0 min 0 min 207 W/m 46,0 km/h (6 Bft)
19.05.2015 10:40 12,1 C 11,1 C 70 % 1006,4 hPa 0,0 l/m 0 min 0 min 130 W/m 39,7 km/h (6 Bft)
19.05.2015 10:42 11,9 C 10,6 C 70 % 1006,4 hPa 0,0 l/m 0 min 2 min 116 W/m 35,6 km/h (5 Bft)
19.05.2015 10:44 11,7 C 10,6 C 71 % 1006,5 hPa 0,0 l/m 0 min 0 min 137 W/m 31,4 km/h (5 Bft)
19.05.2015 10:46 11,5 C 10,6 C 72 % 1006,5 hPa 0,0 l/m 0 min 0 min 193 W/m 35,6 km/h (5 Bft)
19.05.2015 10:48 11,6 C 10,6 C 73 % 1006,5 hPa 0,0 l/m 0 min 0 min 271 W/m 31,4 km/h (5 Bft)
19.05.2015 10:50 11,7 C 11,1 C 73 % 1006,5 hPa 0,0 l/m 2 min 0 min 392 W/m 35,6 km/h (5 Bft)
19.05.2015 10:52 11,9 C 11,7 C 73 % 1006,4 hPa 0,0 l/m 2 min 0 min 392 W/m 33,5 km/h (5 Bft)
19.05.2015 10:54 12,1 C 11,7 C 72 % 1006,6 hPa 0,0 l/m 2 min 0 min 810 W/m 31,4 km/h (5 Bft)
19.05.2015 10:56 12,3 C 11,7 C 72 % 1006,5 hPa 0,0 l/m 2 min 0 min 882 W/m 25,1 km/h (4 Bft)
19.05.2015 10:58 12,4 C 11,7 C 71 % 1006,5 hPa 0,0 l/m 0 min 0 min 255 W/m 31,4 km/h (5 Bft)
19.05.2015 11:00 12,4 C 11,7 C 71 % 1006,5 hPa 0,0 l/m 0 min 0 min 262 W/m 27,2 km/h (4 Bft)
19.05.2015 11:02 12,5 C 12,2 C 71 % 1006,5 hPa 0,0 l/m 0 min 0 min 331 W/m 37,7 km/h (5 Bft)
19.05.2015 11:04 12,4 C 11,7 C 68 % 1006,4 hPa 0,0 l/m 0 min 0 min 338 W/m 48,1 km/h (6 Bft)
19.05.2015 11:06 12,4 C 11,7 C 67 % 1006,4 hPa 0,0 l/m 2 min 0 min 414 W/m 35,6 km/h (5 Bft)
19.05.2015 11:08 12,2 C 11,7 C 68 % 1006,4 hPa 0,0 l/m 0 min 0 min 273 W/m 43,9 km/h (6 Bft)
19.05.2015 11:10 12,2 C 11,7 C 68 % 1006,5 hPa 0,0 l/m 0 min 0 min 261 W/m 39,7 km/h (6 Bft)
19.05.2015 11:12 12,1 C 11,7 C 69 % 1006,5 hPa 0,0 l/m 0 min 0 min 293 W/m 37,7 km/h (5 Bft)
19.05.2015 11:14 12,1 C 11,7 C 69 % 1006,6 hPa 0,0 l/m 0 min 0 min 357 W/m 46,0 km/h (6 Bft)
19.05.2015 11:16 12,1 C 11,7 C 69 % 1006,5 hPa 0,0 l/m 0 min 0 min 332 W/m 33,5 km/h (5 Bft)
19.05.2015 11:18 12,1 C 11,7 C 68 % 1006,5 hPa 0,0 l/m 0 min 0 min 279 W/m 37,7 km/h (5 Bft)
19.05.2015 11:20 12,1 C 11,7 C 69 % 1006,4 hPa 0,0 l/m 0 min 0 min 275 W/m 29,3 km/h (5 Bft)
19.05.2015 11:22 12,1 C 11,7 C 69 % 1006,4 hPa 0,0 l/m 0 min 0 min 257 W/m 35,6 km/h (5 Bft)
19.05.2015 11:24 12,1 C 11,7 C 69 % 1006,4 hPa 0,0 l/m 0 min 0 min 269 W/m 35,6 km/h (5 Bft)
19.05.2015 11:26 12,3 C 12,2 C 70 % 1006,4 hPa 0,0 l/m 2 min 0 min 674 W/m 35,6 km/h (5 Bft)
19.05.2015 11:28 12,7 C 12,2 C 69 % 1006,5 hPa 0,0 l/m 2 min 0 min 997 W/m 25,1 km/h (4 Bft)
19.05.2015 11:30 13,1 C 12,8 C 69 % 1006,5 hPa 0,0 l/m 2 min 0 min 997 W/m 31,4 km/h (5 Bft)
19.05.2015 11:32 13,2 C 12,8 C 68 % 1006,4 hPa 0,0 l/m 2 min 0 min 389 W/m 39,7 km/h (6 Bft)
19.05.2015 11:34 13,3 C 12,8 C 67 % 1006,4 hPa 0,0 l/m 0 min 0 min 303 W/m 46,0 km/h (6 Bft)
19.05.2015 11:36 13,1 C 12,2 C 66 % 1006,6 hPa 0,0 l/m 0 min 0 min 243 W/m 37,7 km/h (5 Bft)
19.05.2015 11:38 12,8 C 12,2 C 67 % 1006,4 hPa 0,0 l/m 0 min 0 min 283 W/m 33,5 km/h (5 Bft)
19.05.2015 11:40 12,7 C 12,2 C 68 % 1006,4 hPa 0,0 l/m 0 min 0 min 278 W/m 31,4 km/h (5 Bft)
19.05.2015 11:42 12,6 C 12,2 C 68 % 1006,4 hPa 0,0 l/m 0 min 0 min 261 W/m 39,7 km/h (6 Bft)
19.05.2015 11:44 12,5 C 11,7 C 67 % 1006,4 hPa 0,0 l/m 0 min 0 min 222 W/m 39,7 km/h (6 Bft)
19.05.2015 11:46 12,4 C 11,7 C 68 % 1006,4 hPa 0,0 l/m 0 min 0 min 193 W/m 18,8 km/h (3 Bft)
19.05.2015 11:48 12,3 C 11,7 C 69 % 1006,4 hPa 0,0 l/m 0 min 0 min 183 W/m 33,5 km/h (5 Bft)
19.05.2015 11:50 12,2 C 11,7 C 69 % 1006,5 hPa 0,0 l/m 0 min 0 min 228 W/m 41,8 km/h (6 Bft)
19.05.2015 11:52 12,2 C 11,7 C 69 % 1006,5 hPa 0,0 l/m 0 min 0 min 306 W/m 41,8 km/h (6 Bft)
19.05.2015 11:54 12,3 C 12,2 C 70 % 1006,5 hPa 0,0 l/m 2 min 0 min 425 W/m 25,1 km/h (4 Bft)
19.05.2015 11:56 12,4 C 12,2 C 69 % 1006,4 hPa 0,0 l/m 2 min 0 min 436 W/m 39,7 km/h (6 Bft)
19.05.2015 11:58 12,6 C 12,2 C 68 % 1006,6 hPa 0,0 l/m 2 min 0 min 765 W/m 39,7 km/h (6 Bft)
19.05.2015 12:00 12,8 C 12,2 C 69 % 1006,5 hPa 0,0 l/m 2 min 0 min 876 W/m 29,3 km/h (5 Bft)
19.05.2015 12:02 13,2 C 12,8 C 70 % 1006,4 hPa 0,0 l/m 2 min 0 min 893 W/m 20,9 km/h (4 Bft)
19.05.2015 12:06 13,5 C 12,8 C 66 % 1006,4 hPa 0,0 l/m 2 min 0 min 553 W/m 37,7 km/h (5 Bft)
19.05.2015 12:08 13,3 C 12,2 C 66 % 1006,4 hPa 0,0 l/m 0 min 0 min 224 W/m 41,8 km/h (6 Bft)
19.05.2015 12:10 13,1 C 12,2 C 65 % 1006,4 hPa 0,0 l/m 0 min 0 min 158 W/m 43,9 km/h (6 Bft)
19.05.2015 12:12 12,9 C 11,7 C 66 % 1006,4 hPa 0,0 l/m 0 min 0 min 147 W/m 25,1 km/h (4 Bft)
19.05.2015 12:14 12,8 C 11,7 C 67 % 1006,5 hPa 0,0 l/m 0 min 0 min 129 W/m 29,3 km/h (5 Bft)
19.05.2015 12:16 12,7 C 11,7 C 67 % 1006,5 hPa 0,0 l/m 0 min 0 min 112 W/m 37,7 km/h (5 Bft)
19.05.2015 12:18 12,5 C 11,1 C 67 % 1006,6 hPa 0,0 l/m 0 min 0 min 116 W/m 46,0 km/h (6 Bft)
19.05.2015 12:20 12,3 C 11,1 C 67 % 1006,7 hPa 0,0 l/m 0 min 0 min 144 W/m 33,5 km/h (5 Bft)
19.05.2015 12:22 12,2 C 11,1 C 68 % 1006,7 hPa 0,0 l/m 0 min 0 min 169 W/m 31,4 km/h (5 Bft)
19.05.2015 12:24 12,2 C 11,1 C 69 % 1006,7 hPa 0,0 l/m 0 min 0 min 177 W/m 33,5 km/h (5 Bft)
19.05.2015 12:26 12,2 C 11,1 C 69 % 1006,7 hPa 0,0 l/m 0 min 0 min 249 W/m 31,4 km/h (5 Bft)
19.05.2015 12:28 12,4 C 12,2 C 70 % 1006,7 hPa 0,0 l/m 0 min 0 min 315 W/m 29,3 km/h (5 Bft)
19.05.2015 12:30 12,8 C 12,8 C 69 % 1006,6 hPa 0,0 l/m 2 min 0 min 457 W/m 23,0 km/h (4 Bft)
19.05.2015 12:32 13,1 C 12,8 C 69 % 1006,6 hPa 0,0 l/m 2 min 0 min 436 W/m 20,9 km/h (4 Bft)
19.05.2015 12:34 13,3 C 12,8 C 68 % 1006,4 hPa 0,0 l/m 0 min 0 min 302 W/m 27,2 km/h (4 Bft)
19.05.2015 12:36 13,4 C 12,8 C 67 % 1006,5 hPa 0,0 l/m 0 min 0 min 141 W/m 39,7 km/h (6 Bft)
19.05.2015 12:38 13,3 C 12,2 C 67 % 1006,5 hPa 0,0 l/m 0 min 2 min 95 W/m 37,7 km/h (5 Bft)
19.05.2015 12:40 13,1 C 11,7 C 67 % 1006,6 hPa 0,0 l/m 0 min 2 min 99 W/m 43,9 km/h (6 Bft)
19.05.2015 12:42 12,8 C 11,1 C 68 % 1006,6 hPa 0,0 l/m 0 min 2 min 143 W/m 37,7 km/h (5 Bft)
19.05.2015 12:44 12,6 C 11,1 C 68 % 1006,7 hPa 0,0 l/m 0 min 2 min 221 W/m 43,9 km/h (6 Bft)
19.05.2015 12:46 12,4 C 11,1 C 69 % 1006,6 hPa 0,2 l/m 0 min 0 min 282 W/m 35,6 km/h (5 Bft)
19.05.2015 12:48 12,4 C 11,7 C 70 % 1006,6 hPa 0,0 l/m 0 min 0 min 304 W/m 35,6 km/h (5 Bft)
19.05.2015 12:50 12,4 C 11,7 C 70 % 1006,7 hPa 0,0 l/m 0 min 0 min 311 W/m 18,8 km/h (3 Bft)
19.05.2015 12:52 12,7 C 12,2 C 71 % 1006,7 hPa 0,0 l/m 0 min 0 min 379 W/m 27,2 km/h (4 Bft)
19.05.2015 12:54 12,9 C 12,8 C 69 % 1006,7 hPa 0,0 l/m 0 min 0 min 388 W/m 35,6 km/h (5 Bft)
19.05.2015 12:56 13,0 C 12,8 C 67 % 1006,6 hPa 0,0 l/m 0 min 0 min 368 W/m 37,7 km/h (5 Bft)
19.05.2015 12:58 13,1 C 12,8 C 67 % 1006,7 hPa 0,0 l/m 0 min 0 min 369 W/m 31,4 km/h (5 Bft)
19.05.2015 13:00 13,4 C 14,4 C 67 % 1006,7 hPa 0,0 l/m 2 min 0 min 498 W/m 33,5 km/h (5 Bft)
19.05.2015 13:02 13,6 C 15,0 C 65 % 1006,6 hPa 0,0 l/m 2 min 0 min 946 W/m 31,4 km/h (5 Bft)
19.05.2015 13:04 13,9 C 15,6 C 67 % 1006,6 hPa 0,0 l/m 2 min 0 min 757 W/m 29,3 km/h (5 Bft)
19.05.2015 13:06 14,2 C 16,7 C 65 % 1006,6 hPa 0,0 l/m 2 min 0 min 1129 W/m 35,6 km/h (5 Bft)
19.05.2015 13:08 14,5 C 16,7 C 64 % 1006,6 hPa 0,0 l/m 2 min 0 min 1129 W/m 41,8 km/h (6 Bft)
19.05.2015 13:10 14,4 C 16,1 C 64 % 1006,5 hPa 0,0 l/m 2 min 0 min 468 W/m 39,7 km/h (6 Bft)
19.05.2015 13:12 14,3 C 15,0 C 63 % 1006,5 hPa 0,0 l/m 0 min 0 min 277 W/m 29,3 km/h (5 Bft)
19.05.2015 13:14 14,2 C 14,4 C 64 % 1006,5 hPa 0,0 l/m 0 min 0 min 191 W/m 39,7 km/h (6 Bft)
19.05.2015 13:16 14,1 C 13,3 C 63 % 1006,4 hPa 0,0 l/m 0 min 0 min 213 W/m 35,6 km/h (5 Bft)
19.05.2015 13:18 13,9 C 12,8 C 63 % 1006,6 hPa 0,0 l/m 0 min 0 min 193 W/m 43,9 km/h (6 Bft)
19.05.2015 13:20 13,8 C 12,8 C 63 % 1006,6 hPa 0,0 l/m 0 min 0 min 133 W/m 35,6 km/h (5 Bft)
19.05.2015 13:22 13,6 C 12,2 C 64 % 1006,7 hPa 0,0 l/m 0 min 2 min 117 W/m 33,5 km/h (5 Bft)
19.05.2015 13:24 13,4 C 11,7 C 65 % 1006,7 hPa 0,0 l/m 0 min 2 min 192 W/m 33,5 km/h (5 Bft)
19.05.2015 13:26 13,2 C 12,2 C 69 % 1006,7 hPa 0,0 l/m 0 min 2 min 341 W/m 25,1 km/h (4 Bft)
19.05.2015 13:28 13,2 C 12,2 C 68 % 1006,8 hPa 0,0 l/m 2 min 0 min 500 W/m 37,7 km/h (5 Bft)
19.05.2015 13:30 13,2 C 12,8 C 67 % 1006,7 hPa 0,0 l/m 2 min 0 min 421 W/m 25,1 km/h (4 Bft)
19.05.2015 13:32 13,4 C 13,9 C 66 % 1006,7 hPa 0,0 l/m 2 min 0 min 452 W/m 48,1 km/h (6 Bft)
19.05.2015 13:34 13,8 C 15,0 C 66 % 1006,6 hPa 0,0 l/m 2 min 0 min 879 W/m 27,2 km/h (4 Bft)
19.05.2015 13:36 14,3 C 14,4 C 65 % 1006,7 hPa 0,0 l/m 2 min 0 min 913 W/m 29,3 km/h (5 Bft)
19.05.2015 13:38 14,6 C 14,4 C 63 % 1006,6 hPa 0,0 l/m 2 min 0 min 926 W/m 52,3 km/h (7 Bft)
19.05.2015 13:40 14,8 C 14,4 C 60 % 1006,7 hPa 0,0 l/m 2 min 0 min 933 W/m 39,7 km/h (6 Bft)
19.05.2015 13:42 14,8 C 14,4 C 59 % 1006,6 hPa 0,0 l/m 2 min 0 min 933 W/m 37,7 km/h (5 Bft)
19.05.2015 13:44 14,8 C 13,9 C 59 % 1006,7 hPa 0,0 l/m 2 min 0 min 939 W/m 35,6 km/h (5 Bft)
19.05.2015 13:46 14,7 C 13,9 C 60 % 1006,6 hPa 0,0 l/m 2 min 0 min 935 W/m 46,0 km/h (6 Bft)
19.05.2015 13:48 14,9 C 14,4 C 61 % 1006,7 hPa 0,0 l/m 2 min 0 min 942 W/m 39,7 km/h (6 Bft)
19.05.2015 13:50 15,1 C 14,4 C 58 % 1006,6 hPa 0,0 l/m 2 min 0 min 947 W/m 41,8 km/h (6 Bft)
19.05.2015 13:52 15,1 C 14,4 C 58 % 1006,6 hPa 0,0 l/m 2 min 0 min 584 W/m 35,6 km/h (5 Bft)
19.05.2015 13:54 14,9 C 14,4 C 58 % 1006,6 hPa 0,0 l/m 0 min 0 min 402 W/m 29,3 km/h (5 Bft)
19.05.2015 13:56 14,9 C 13,9 C 59 % 1006,5 hPa 0,0 l/m 0 min 0 min 308 W/m 41,8 km/h (6 Bft)
19.05.2015 13:58 14,8 C 13,9 C 59 % 1006,6 hPa 0,0 l/m 0 min 0 min 215 W/m 33,5 km/h (5 Bft)
19.05.2015 14:00 14,6 C 13,3 C 59 % 1006,7 hPa 0,0 l/m 0 min 2 min 184 W/m 41,8 km/h (6 Bft)
19.05.2015 14:02 14,4 C 13,3 C 61 % 1006,7 hPa 0,0 l/m 0 min 2 min 192 W/m 33,5 km/h (5 Bft)
19.05.2015 14:04 14,7 C 13,9 C 63 % 1006,6 hPa 0,0 l/m 2 min 0 min 988 W/m 35,6 km/h (5 Bft)
19.05.2015 14:06 14,8 C 14,4 C 61 % 1006,6 hPa 0,0 l/m 2 min 0 min 1034 W/m 35,6 km/h (5 Bft)
19.05.2015 14:08 15,1 C 14,4 C 61 % 1006,5 hPa 0,0 l/m 2 min 0 min 1070 W/m 25,1 km/h (4 Bft)
19.05.2015 14:10 15,2 C 14,4 C 59 % 1006,6 hPa 0,0 l/m 2 min 0 min 677 W/m 33,5 km/h (5 Bft)
19.05.2015 14:12 15,0 C 14,4 C 57 % 1006,5 hPa 0,0 l/m 0 min 0 min 314 W/m 33,5 km/h (5 Bft)
19.05.2015 14:14 14,8 C 13,9 C 58 % 1006,5 hPa 0,0 l/m 0 min 0 min 272 W/m 29,3 km/h (5 Bft)
19.05.2015 14:16 14,7 C 13,9 C 58 % 1006,6 hPa 0,0 l/m 0 min 0 min 217 W/m 25,1 km/h (4 Bft)
19.05.2015 14:18 14,6 C 13,3 C 58 % 1006,6 hPa 0,0 l/m 0 min 0 min 204 W/m 39,7 km/h (6 Bft)
19.05.2015 14:20 14,6 C 13,3 C 58 % 1006,7 hPa 0,0 l/m 0 min 2 min 190 W/m 33,5 km/h (5 Bft)
19.05.2015 14:22 14,4 C 13,3 C 59 % 1006,7 hPa 0,0 l/m 0 min 2 min 220 W/m 41,8 km/h (6 Bft)
19.05.2015 14:24 14,2 C 13,3 C 62 % 1006,8 hPa 0,0 l/m 0 min 2 min 295 W/m 20,9 km/h (4 Bft)
19.05.2015 14:26 14,1 C 13,3 C 63 % 1006,7 hPa 0,0 l/m 0 min 0 min 276 W/m 29,3 km/h (5 Bft)
19.05.2015 14:28 14,0 C 13,3 C 65 % 1006,7 hPa 0,0 l/m 2 min 0 min 693 W/m 14,6 km/h (3 Bft)
19.05.2015 14:30 14,5 C 13,9 C 66 % 1006,7 hPa 0,0 l/m 2 min 0 min 916 W/m 23,0 km/h (4 Bft)
19.05.2015 14:32 15,0 C 14,4 C 65 % 1006,8 hPa 0,0 l/m 2 min 0 min 879 W/m 20,9 km/h (4 Bft)
19.05.2015 14:34 15,3 C 14,4 C 65 % 1006,7 hPa 0,0 l/m 2 min 0 min 877 W/m 29,3 km/h (5 Bft)
19.05.2015 14:36 15,4 C 15,0 C 63 % 1006,7 hPa 0,0 l/m 2 min 0 min 891 W/m 25,1 km/h (4 Bft)
19.05.2015 14:38 15,4 C 15,0 C 62 % 1006,7 hPa 0,0 l/m 2 min 0 min 580 W/m 20,9 km/h (4 Bft)
19.05.2015 14:40 15,4 C 15,0 C 63 % 1006,8 hPa 0,0 l/m 2 min 0 min 473 W/m 18,8 km/h (3 Bft)
19.05.2015 14:42 15,6 C 15,0 C 64 % 1006,8 hPa 0,0 l/m 2 min 0 min 929 W/m 20,9 km/h (4 Bft)
19.05.2015 14:44 15,8 C 15,6 C 60 % 1006,8 hPa 0,0 l/m 2 min 0 min 904 W/m 27,2 km/h (4 Bft)
19.05.2015 14:46 15,9 C 15,0 C 60 % 1006,7 hPa 0,0 l/m 2 min 2 min 863 W/m 29,3 km/h (5 Bft)
19.05.2015 14:48 16,2 C 15,6 C 60 % 1006,7 hPa 0,0 l/m 2 min 0 min 850 W/m 29,3 km/h (5 Bft)
19.05.2015 14:50 16,3 C 15,6 C 57 % 1006,7 hPa 0,0 l/m 2 min 0 min 858 W/m 41,8 km/h (6 Bft)
19.05.2015 14:52 16,3 C 15,6 C 56 % 1006,7 hPa 0,0 l/m 2 min 0 min 880 W/m 41,8 km/h (6 Bft)
19.05.2015 14:54 16,3 C 15,0 C 56 % 1006,8 hPa 0,0 l/m 2 min 0 min 905 W/m 43,9 km/h (6 Bft)
19.05.2015 14:56 16,4 C 15,6 C 55 % 1006,8 hPa 0,0 l/m 2 min 0 min 941 W/m 39,7 km/h (6 Bft)
19.05.2015 14:58 16,4 C 15,0 C 55 % 1006,7 hPa 0,0 l/m 2 min 0 min 797 W/m 37,7 km/h (5 Bft)
19.05.2015 15:00 16,4 C 15,0 C 55 % 1006,8 hPa 0,0 l/m 0 min 0 min 245 W/m 27,2 km/h (4 Bft)
19.05.2015 15:02 16,3 C 15,0 C 55 % 1006,7 hPa 0,0 l/m 2 min 0 min 400 W/m 31,4 km/h (5 Bft)
19.05.2015 15:04 16,2 C 15,0 C 56 % 1006,7 hPa 0,0 l/m 2 min 0 min 793 W/m 33,5 km/h (5 Bft)
19.05.2015 15:06 16,2 C 15,0 C 55 % 1006,8 hPa 0,0 l/m 2 min 0 min 888 W/m 43,9 km/h (6 Bft)
19.05.2015 15:08 16,1 C 15,0 C 54 % 1006,7 hPa 0,0 l/m 2 min 0 min 855 W/m 52,3 km/h (7 Bft)
19.05.2015 15:10 16,0 C 15,0 C 54 % 1006,6 hPa 0,0 l/m 2 min 0 min 838 W/m 41,8 km/h (6 Bft)
19.05.2015 15:12 16,0 C 15,6 C 56 % 1006,7 hPa 0,0 l/m 2 min 0 min 839 W/m 37,7 km/h (5 Bft)
19.05.2015 15:14 16,3 C 15,6 C 56 % 1006,5 hPa 0,0 l/m 2 min 0 min 827 W/m 31,4 km/h (5 Bft)
19.05.2015 15:16 16,4 C 15,6 C 55 % 1006,5 hPa 0,0 l/m 2 min 0 min 837 W/m 29,3 km/h (5 Bft)
19.05.2015 15:18 16,7 C 15,6 C 54 % 1006,5 hPa 0,0 l/m 2 min 0 min 874 W/m 46,0 km/h (6 Bft)
19.05.2015 15:20 16,7 C 15,6 C 53 % 1006,6 hPa 0,0 l/m 0 min 0 min 258 W/m 37,7 km/h (5 Bft)
19.05.2015 15:22 16,7 C 15,6 C 53 % 1006,7 hPa 0,0 l/m 0 min 0 min 210 W/m 23,0 km/h (4 Bft)
19.05.2015 15:24 16,6 C 15,0 C 53 % 1006,7 hPa 0,0 l/m 0 min 0 min 155 W/m 31,4 km/h (5 Bft)
19.05.2015 15:26 16,5 C 14,4 C 54 % 1006,9 hPa 0,0 l/m 0 min 0 min 149 W/m 16,7 km/h (3 Bft)
19.05.2015 15:28 16,4 C 14,4 C 54 % 1007,0 hPa 0,0 l/m 0 min 0 min 140 W/m 41,8 km/h (6 Bft)
19.05.2015 15:30 16,2 C 13,9 C 55 % 1007,1 hPa 0,0 l/m 0 min 0 min 122 W/m 25,1 km/h (4 Bft)
19.05.2015 15:32 16,0 C 13,9 C 57 % 1007,0 hPa 0,0 l/m 0 min 0 min 130 W/m 23,0 km/h (4 Bft)
19.05.2015 15:34 15,7 C 13,3 C 58 % 1007,0 hPa 0,0 l/m 0 min 2 min 153 W/m 29,3 km/h (5 Bft)
19.05.2015 15:36 15,6 C 12,8 C 60 % 1007,0 hPa 0,0 l/m 0 min 2 min 174 W/m 18,8 km/h (3 Bft)
19.05.2015 15:38 15,4 C 12,8 C 61 % 1007,1 hPa 0,0 l/m 0 min 0 min 191 W/m 20,9 km/h (4 Bft)
19.05.2015 15:40 15,3 C 12,8 C 62 % 1007,2 hPa 0,0 l/m 0 min 0 min 242 W/m 31,4 km/h (5 Bft)
19.05.2015 15:42 15,1 C 13,3 C 63 % 1007,2 hPa 0,0 l/m 0 min 2 min 295 W/m 27,2 km/h (4 Bft)
19.05.2015 15:44 14,9 C 13,3 C 64 % 1007,4 hPa 0,0 l/m 0 min 0 min 316 W/m 27,2 km/h (4 Bft)
19.05.2015 15:46 14,8 C 13,9 C 65 % 1007,3 hPa 0,0 l/m 0 min 0 min 343 W/m 37,7 km/h (5 Bft)
19.05.2015 15:48 14,7 C 13,3 C 65 % 1007,3 hPa 0,0 l/m 0 min 0 min 227 W/m 41,8 km/h (6 Bft)
19.05.2015 15:50 14,5 C 13,3 C 65 % 1007,2 hPa 0,0 l/m 0 min 0 min 232 W/m 31,4 km/h (5 Bft)
19.05.2015 15:52 14,3 C 13,3 C 66 % 1007,3 hPa 0,0 l/m 0 min 0 min 242 W/m 29,3 km/h (5 Bft)
19.05.2015 15:54 14,2 C 13,3 C 67 % 1007,3 hPa 0,0 l/m 0 min 0 min 242 W/m 33,5 km/h (5 Bft)
19.05.2015 15:56 14,2 C 13,3 C 68 % 1007,4 hPa 0,0 l/m 0 min 0 min 357 W/m 18,8 km/h (3 Bft)
19.05.2015 15:58 14,2 C 13,9 C 69 % 1007,3 hPa 0,0 l/m 2 min 0 min 804 W/m 29,3 km/h (5 Bft)
19.05.2015 16:00 14,2 C 13,9 C 69 % 1007,3 hPa 0,0 l/m 2 min 0 min 771 W/m 23,0 km/h (4 Bft)
19.05.2015 16:02 14,3 C 14,4 C 69 % 1007,3 hPa 0,0 l/m 2 min 0 min 748 W/m 25,1 km/h (4 Bft)
19.05.2015 16:04 14,4 C 14,4 C 69 % 1007,3 hPa 0,0 l/m 2 min 0 min 734 W/m 25,1 km/h (4 Bft)
19.05.2015 16:06 14,6 C 14,4 C 68 % 1007,3 hPa 0,0 l/m 2 min 0 min 723 W/m 31,4 km/h (5 Bft)
19.05.2015 16:08 14,7 C 15,0 C 67 % 1007,3 hPa 0,0 l/m 2 min 0 min 720 W/m 33,5 km/h (5 Bft)
19.05.2015 16:10 14,7 C 15,0 C 66 % 1007,3 hPa 0,0 l/m 2 min 0 min 715 W/m 31,4 km/h (5 Bft)
19.05.2015 16:12 14,8 C 15,0 C 67 % 1007,5 hPa 0,0 l/m 2 min 0 min 709 W/m 29,3 km/h (5 Bft)
19.05.2015 16:14 14,9 C 15,0 C 66 % 1007,4 hPa 0,0 l/m 2 min 0 min 702 W/m 25,1 km/h (4 Bft)
19.05.2015 16:16 15,0 C 15,0 C 66 % 1007,3 hPa 0,0 l/m 2 min 0 min 701 W/m 31,4 km/h (5 Bft)
19.05.2015 16:18 15,1 C 15,0 C 65 % 1007,3 hPa 0,0 l/m 2 min 0 min 707 W/m 27,2 km/h (4 Bft)
19.05.2015 16:20 15,2 C 15,0 C 65 % 1007,4 hPa 0,0 l/m 2 min 0 min 706 W/m 23,0 km/h (4 Bft)
19.05.2015 16:22 15,3 C 15,0 C 64 % 1007,4 hPa 0,0 l/m 2 min 0 min 713 W/m 25,1 km/h (4 Bft)
19.05.2015 16:24 15,3 C 15,0 C 63 % 1007,3 hPa 0,0 l/m 2 min 0 min 715 W/m 29,3 km/h (5 Bft)
19.05.2015 16:26 15,4 C 15,0 C 63 % 1007,2 hPa 0,0 l/m 2 min 0 min 711 W/m 31,4 km/h (5 Bft)
19.05.2015 16:28 15,4 C 15,6 C 64 % 1007,3 hPa 0,0 l/m 2 min 0 min 709 W/m 23,0 km/h (4 Bft)
19.05.2015 16:30 15,5 C 15,6 C 64 % 1007,3 hPa 0,0 l/m 2 min 0 min 721 W/m 25,1 km/h (4 Bft)
19.05.2015 16:32 15,6 C 15,0 C 63 % 1007,3 hPa 0,0 l/m 2 min 0 min 358 W/m 23,0 km/h (4 Bft)
19.05.2015 16:34 15,5 C 15,0 C 63 % 1007,2 hPa 0,0 l/m 0 min 0 min 193 W/m 20,9 km/h (4 Bft)
19.05.2015 16:36 15,5 C 15,0 C 64 % 1007,3 hPa 0,0 l/m 0 min 0 min 262 W/m 23,0 km/h (4 Bft)
19.05.2015 16:38 15,4 C 15,0 C 64 % 1007,3 hPa 0,0 l/m 0 min 0 min 268 W/m 18,8 km/h (3 Bft)
19.05.2015 16:40 15,4 C 14,4 C 63 % 1007,3 hPa 0,0 l/m 0 min 0 min 197 W/m 16,7 km/h (3 Bft)
19.05.2015 16:42 15,3 C 14,4 C 63 % 1007,3 hPa 0,0 l/m 0 min 0 min 193 W/m 16,7 km/h (3 Bft)
19.05.2015 16:44 15,2 C 14,4 C 63 % 1007,3 hPa 0,0 l/m 0 min 0 min 216 W/m 20,9 km/h (4 Bft)
19.05.2015 16:46 15,1 C 14,4 C 63 % 1007,3 hPa 0,0 l/m 0 min 0 min 258 W/m 20,9 km/h (4 Bft)
19.05.2015 16:48 15,0 C 13,9 C 63 % 1007,3 hPa 0,0 l/m 0 min 0 min 230 W/m 23,0 km/h (4 Bft)
19.05.2015 16:50 14,9 C 13,9 C 64 % 1007,2 hPa 0,0 l/m 0 min 0 min 258 W/m 20,9 km/h (4 Bft)
19.05.2015 16:52 14,9 C 14,4 C 64 % 1007,3 hPa 0,0 l/m 0 min 0 min 217 W/m 14,6 km/h (3 Bft)
19.05.2015 16:54 14,8 C 13,9 C 64 % 1007,3 hPa 0,0 l/m 0 min 0 min 200 W/m 27,2 km/h (4 Bft)
19.05.2015 16:56 14,8 C 13,9 C 64 % 1007,2 hPa 0,0 l/m 0 min 0 min 179 W/m 23,0 km/h (4 Bft)
19.05.2015 16:58 14,7 C 13,9 C 64 % 1007,3 hPa 0,0 l/m 0 min 0 min 163 W/m 35,6 km/h (5 Bft)
19.05.2015 17:00 14,6 C 13,9 C 60 % 1007,3 hPa 0,0 l/m 0 min 0 min 143 W/m 43,9 km/h (6 Bft)
19.05.2015 17:02 14,4 C 13,3 C 58 % 1007,4 hPa 0,0 l/m 0 min 0 min 117 W/m 29,3 km/h (5 Bft)
19.05.2015 17:04 14,3 C 12,8 C 57 % 1007,4 hPa 0,0 l/m 0 min 0 min 93 W/m 25,1 km/h (4 Bft)
19.05.2015 17:06 14,3 C 12,8 C 58 % 1007,6 hPa 0,0 l/m 0 min 0 min 96 W/m 50,2 km/h (7 Bft)
19.05.2015 17:08 14,2 C 12,8 C 62 % 1007,6 hPa 0,0 l/m 0 min 2 min 149 W/m 46,0 km/h (6 Bft)
19.05.2015 17:10 14,2 C 12,8 C 65 % 1007,5 hPa 0,0 l/m 0 min 2 min 213 W/m 23,0 km/h (4 Bft)
19.05.2015 17:12 14,1 C 12,8 C 68 % 1007,6 hPa 0,0 l/m 2 min 2 min 311 W/m 31,4 km/h (5 Bft)
19.05.2015 17:14 14,1 C 12,8 C 70 % 1007,3 hPa 0,0 l/m 2 min 2 min 769 W/m 25,1 km/h (4 Bft)
19.05.2015 17:16 14,1 C 12,8 C 70 % 1007,5 hPa 0,0 l/m 2 min 0 min 698 W/m 18,8 km/h (3 Bft)
19.05.2015 17:18 14,1 C 12,8 C 70 % 1007,5 hPa 0,0 l/m 2 min 0 min 628 W/m 18,8 km/h (3 Bft)
19.05.2015 17:20 14,2 C 12,8 C 69 % 1007,5 hPa 0,0 l/m 2 min 0 min 591 W/m 23,0 km/h (4 Bft)
19.05.2015 17:22 14,2 C 12,8 C 67 % 1007,5 hPa 0,0 l/m 2 min 0 min 569 W/m 23,0 km/h (4 Bft)
19.05.2015 17:24 14,2 C 12,8 C 66 % 1007,4 hPa 0,0 l/m 2 min 0 min 556 W/m 25,1 km/h (4 Bft)
19.05.2015 17:26 14,2 C 12,8 C 65 % 1007,2 hPa 0,0 l/m 2 min 0 min 548 W/m 18,8 km/h (3 Bft)
19.05.2015 17:28 14,2 C 12,8 C 64 % 1007,3 hPa 0,0 l/m 2 min 0 min 543 W/m 29,3 km/h (5 Bft)
19.05.2015 17:30 14,2 C 12,8 C 65 % 1007,3 hPa 0,0 l/m 2 min 0 min 537 W/m 18,8 km/h (3 Bft)
19.05.2015 17:32 14,3 C 12,8 C 65 % 1007,4 hPa 0,0 l/m 2 min 0 min 532 W/m 20,9 km/h (4 Bft)
19.05.2015 17:34 14,3 C 12,8 C 64 % 1007,3 hPa 0,0 l/m 2 min 0 min 525 W/m 29,3 km/h (5 Bft)
19.05.2015 17:36 14,4 C 12,8 C 63 % 1007,3 hPa 0,0 l/m 2 min 0 min 521 W/m 25,1 km/h (4 Bft)
19.05.2015 17:38 14,4 C 12,8 C 62 % 1007,2 hPa 0,0 l/m 2 min 0 min 517 W/m 27,2 km/h (4 Bft)
19.05.2015 17:40 14,5 C 12,8 C 62 % 1007,3 hPa 0,0 l/m 2 min 0 min 514 W/m 33,5 km/h (5 Bft)
19.05.2015 17:42 14,5 C 12,8 C 61 % 1007,5 hPa 0,0 l/m 2 min 0 min 513 W/m 31,4 km/h (5 Bft)
19.05.2015 17:44 14,6 C 12,8 C 62 % 1007,5 hPa 0,0 l/m 2 min 0 min 515 W/m 25,1 km/h (4 Bft)
19.05.2015 17:46 14,6 C 12,8 C 61 % 1007,4 hPa 0,0 l/m 2 min 0 min 487 W/m 41,8 km/h (6 Bft)
19.05.2015 17:48 14,6 C 12,8 C 60 % 1007,4 hPa 0,0 l/m 2 min 0 min 429 W/m 35,6 km/h (5 Bft)
19.05.2015 17:50 14,6 C 12,8 C 60 % 1007,5 hPa 0,0 l/m 2 min 0 min 429 W/m 35,6 km/h (5 Bft)
19.05.2015 17:52 14,5 C 12,2 C 60 % 1007,5 hPa 0,0 l/m 2 min 0 min 267 W/m 46,0 km/h (6 Bft)
19.05.2015 17:54 14,4 C 12,2 C 60 % 1007,4 hPa 0,0 l/m 0 min 0 min 152 W/m 18,8 km/h (3 Bft)
19.05.2015 17:56 14,4 C 12,2 C 61 % 1007,4 hPa 0,0 l/m 2 min 0 min 429 W/m 29,3 km/h (5 Bft)
19.05.2015 17:58 14,3 C 12,2 C 61 % 1007,3 hPa 0,0 l/m 2 min 0 min 516 W/m 31,4 km/h (5 Bft)
19.05.2015 18:00 14,2 C 12,2 C 61 % 1007,4 hPa 0,0 l/m 2 min 0 min 530 W/m 27,2 km/h (4 Bft)
19.05.2015 18:02 14,2 C 12,2 C 61 % 1007,4 hPa 0,0 l/m 2 min 0 min 495 W/m 29,3 km/h (5 Bft)
19.05.2015 18:06 14,2 C 12,2 C 62 % 1007,4 hPa 0,0 l/m 2 min 0 min 462 W/m 25,1 km/h (4 Bft)
19.05.2015 18:08 14,2 C 12,2 C 62 % 1007,6 hPa 0,0 l/m 2 min 0 min 450 W/m 31,4 km/h (5 Bft)
19.05.2015 18:10 14,2 C 12,2 C 61 % 1007,5 hPa 0,0 l/m 2 min 0 min 446 W/m 33,5 km/h (5 Bft)
19.05.2015 18:12 14,2 C 12,2 C 61 % 1007,4 hPa 0,0 l/m 2 min 0 min 440 W/m 43,9 km/h (6 Bft)
19.05.2015 18:14 14,2 C 12,2 C 62 % 1007,6 hPa 0,0 l/m 2 min 0 min 431 W/m 31,4 km/h (5 Bft)
19.05.2015 18:16 14,2 C 12,2 C 61 % 1007,5 hPa 0,0 l/m 2 min 0 min 426 W/m 39,7 km/h (6 Bft)
19.05.2015 18:18 14,2 C 12,2 C 62 % 1007,5 hPa 0,0 l/m 2 min 0 min 407 W/m 29,3 km/h (5 Bft)
19.05.2015 18:20 14,2 C 12,2 C 62 % 1007,4 hPa 0,0 l/m 2 min 0 min 461 W/m 23,0 km/h (4 Bft)
19.05.2015 18:22 14,2 C 12,8 C 62 % 1007,5 hPa 0,0 l/m 2 min 0 min 465 W/m 27,2 km/h (4 Bft)
19.05.2015 18:24 14,3 C 12,8 C 62 % 1007,3 hPa 0,0 l/m 2 min 0 min 449 W/m 27,2 km/h (4 Bft)
19.05.2015 18:26 14,3 C 12,8 C 61 % 1007,3 hPa 0,0 l/m 2 min 0 min 442 W/m 31,4 km/h (5 Bft)
19.05.2015 18:28 14,4 C 12,8 C 62 % 1007,3 hPa 0,0 l/m 2 min 0 min 434 W/m 25,1 km/h (4 Bft)
19.05.2015 18:30 14,4 C 12,8 C 62 % 1007,3 hPa 0,0 l/m 2 min 0 min 412 W/m 23,0 km/h (4 Bft)
19.05.2015 18:32 14,4 C 12,8 C 61 % 1007,4 hPa 0,0 l/m 2 min 0 min 283 W/m 25,1 km/h (4 Bft)
19.05.2015 18:34 14,4 C 12,2 C 61 % 1007,3 hPa 0,0 l/m 0 min 0 min 130 W/m 20,9 km/h (4 Bft)
19.05.2015 18:36 14,4 C 12,2 C 61 % 1007,2 hPa 0,0 l/m 0 min 0 min 132 W/m 27,2 km/h (4 Bft)
19.05.2015 18:38 14,3 C 12,2 C 60 % 1007,3 hPa 0,0 l/m 0 min 0 min 139 W/m 35,6 km/h (5 Bft)
19.05.2015 18:40 14,2 C 12,2 C 60 % 1007,3 hPa 0,0 l/m 2 min 0 min 203 W/m 29,3 km/h (5 Bft)
19.05.2015 18:42 14,2 C 12,8 C 59 % 1007,3 hPa 0,0 l/m 2 min 0 min 256 W/m 29,3 km/h (5 Bft)
19.05.2015 18:44 14,2 C 12,8 C 58 % 1007,3 hPa 0,0 l/m 2 min 0 min 211 W/m 39,7 km/h (6 Bft)
19.05.2015 18:46 14,2 C 12,8 C 59 % 1007,3 hPa 0,0 l/m 2 min 0 min 210 W/m 29,3 km/h (5 Bft)
19.05.2015 18:48 14,2 C 12,8 C 58 % 1007,4 hPa 0,0 l/m 2 min 0 min 190 W/m 31,4 km/h (5 Bft)
19.05.2015 18:50 14,2 C 12,8 C 58 % 1007,3 hPa 0,0 l/m 0 min 0 min 178 W/m 35,6 km/h (5 Bft)
19.05.2015 18:52 14,2 C 12,8 C 58 % 1007,3 hPa 0,0 l/m 0 min 0 min 157 W/m 29,3 km/h (5 Bft)
19.05.2015 18:54 14,2 C 12,8 C 58 % 1007,2 hPa 0,0 l/m 0 min 0 min 157 W/m 35,6 km/h (5 Bft)
19.05.2015 18:56 14,2 C 12,8 C 58 % 1007,2 hPa 0,0 l/m 2 min 0 min 171 W/m 31,4 km/h (5 Bft)
19.05.2015 18:58 14,2 C 12,8 C 59 % 1007,2 hPa 0,0 l/m 2 min 0 min 219 W/m 29,3 km/h (5 Bft)
19.05.2015 19:00 14,2 C 12,8 C 59 % 1007,2 hPa 0,0 l/m 2 min 0 min 428 W/m 23,0 km/h (4 Bft)
19.05.2015 19:02 14,2 C 13,3 C 59 % 1007,2 hPa 0,0 l/m 2 min 0 min 449 W/m 31,4 km/h (5 Bft)
19.05.2015 19:04 14,2 C 13,3 C 59 % 1007,1 hPa 0,0 l/m 2 min 0 min 446 W/m 25,1 km/h (4 Bft)
19.05.2015 19:06 14,2 C 13,3 C 60 % 1007,3 hPa 0,0 l/m 2 min 0 min 438 W/m 18,8 km/h (3 Bft)
19.05.2015 19:08 14,3 C 13,3 C 59 % 1007,3 hPa 0,0 l/m 2 min 0 min 416 W/m 29,3 km/h (5 Bft)
19.05.2015 19:10 14,3 C 13,3 C 59 % 1007,4 hPa 0,0 l/m 2 min 0 min 397 W/m 25,1 km/h (4 Bft)
19.05.2015 19:12 14,4 C 13,3 C 59 % 1007,3 hPa 0,0 l/m 2 min 0 min 377 W/m 29,3 km/h (5 Bft)
19.05.2015 19:14 14,4 C 13,3 C 59 % 1007,3 hPa 0,0 l/m 2 min 0 min 366 W/m 37,7 km/h (5 Bft)
19.05.2015 19:16 14,4 C 13,3 C 59 % 1007,4 hPa 0,0 l/m 2 min 0 min 348 W/m 23,0 km/h (4 Bft)
19.05.2015 19:18 14,4 C 12,8 C 60 % 1007,3 hPa 0,0 l/m 2 min 0 min 336 W/m 39,7 km/h (6 Bft)
19.05.2015 19:20 14,4 C 12,8 C 60 % 1007,4 hPa 0,0 l/m 2 min 0 min 162 W/m 39,7 km/h (6 Bft)
19.05.2015 19:22 14,4 C 12,8 C 60 % 1007,3 hPa 0,0 l/m 0 min 0 min 137 W/m 35,6 km/h (5 Bft)
19.05.2015 19:24 14,4 C 12,8 C 59 % 1007,3 hPa 0,0 l/m 0 min 0 min 119 W/m 33,5 km/h (5 Bft)
19.05.2015 19:26 14,3 C 12,2 C 58 % 1007,3 hPa 0,0 l/m 0 min 0 min 98 W/m 54,4 km/h (7 Bft)
19.05.2015 19:28 14,2 C 12,2 C 58 % 1007,2 hPa 0,0 l/m 0 min 0 min 121 W/m 35,6 km/h (5 Bft)
19.05.2015 19:30 14,2 C 12,2 C 59 % 1007,3 hPa 0,0 l/m 2 min 0 min 230 W/m 37,7 km/h (5 Bft)
19.05.2015 19:32 14,2 C 12,2 C 58 % 1007,2 hPa 0,0 l/m 2 min 0 min 223 W/m 39,7 km/h (6 Bft)
19.05.2015 19:34 14,0 C 12,2 C 58 % 1007,2 hPa 0,0 l/m 2 min 0 min 224 W/m 37,7 km/h (5 Bft)
19.05.2015 19:36 13,9 C 12,2 C 58 % 1007,4 hPa 0,0 l/m 2 min 0 min 219 W/m 29,3 km/h (5 Bft)
19.05.2015 19:38 13,9 C 12,2 C 59 % 1007,4 hPa 0,0 l/m 2 min 0 min 214 W/m 25,1 km/h (4 Bft)
19.05.2015 19:40 13,9 C 12,2 C 59 % 1007,4 hPa 0,0 l/m 2 min 0 min 207 W/m 31,4 km/h (5 Bft)
19.05.2015 19:42 13,8 C 11,7 C 59 % 1007,5 hPa 0,0 l/m 2 min 0 min 191 W/m 39,7 km/h (6 Bft)
19.05.2015 19:44 13,8 C 11,7 C 59 % 1007,4 hPa 0,0 l/m 2 min 0 min 178 W/m 23,0 km/h (4 Bft)
19.05.2015 19:46 13,7 C 11,7 C 60 % 1007,4 hPa 0,0 l/m 2 min 0 min 160 W/m 25,1 km/h (4 Bft)
19.05.2015 19:48 13,7 C 11,7 C 60 % 1007,4 hPa 0,0 l/m 2 min 0 min 155 W/m 23,0 km/h (4 Bft)
19.05.2015 19:50 13,6 C 11,7 C 61 % 1007,5 hPa 0,0 l/m 2 min 0 min 148 W/m 31,4 km/h (5 Bft)
19.05.2015 19:52 13,6 C 11,7 C 61 % 1007,5 hPa 0,0 l/m 2 min 0 min 134 W/m 31,4 km/h (5 Bft)
19.05.2015 19:54 13,5 C 11,7 C 61 % 1007,5 hPa 0,0 l/m 2 min 0 min 104 W/m 29,3 km/h (5 Bft)
19.05.2015 19:56 13,4 C 11,7 C 61 % 1007,5 hPa 0,0 l/m 0 min 0 min 49 W/m 33,5 km/h (5 Bft)
19.05.2015 19:58 13,4 C 11,7 C 61 % 1007,5 hPa 0,0 l/m 0 min 0 min 49 W/m 35,6 km/h (5 Bft)
19.05.2015 20:00 13,3 C 11,7 C 62 % 1007,6 hPa 0,0 l/m 0 min 0 min 53 W/m 25,1 km/h (4 Bft)
19.05.2015 20:02 13,2 C 11,1 C 62 % 1007,7 hPa 0,0 l/m 0 min 0 min 69 W/m 29,3 km/h (5 Bft)
19.05.2015 20:04 13,2 C 11,1 C 62 % 1007,6 hPa 0,0 l/m 0 min 0 min 62 W/m 33,5 km/h (5 Bft)
19.05.2015 20:06 13,1 C 11,1 C 62 % 1007,6 hPa 0,0 l/m 0 min 0 min 53 W/m 25,1 km/h (4 Bft)
19.05.2015 20:08 13,1 C 11,1 C 63 % 1007,6 hPa 0,0 l/m 0 min 0 min 54 W/m 25,1 km/h (4 Bft)
19.05.2015 20:10 13,0 C 11,1 C 63 % 1007,6 hPa 0,0 l/m 0 min 0 min 50 W/m 16,7 km/h (3 Bft)
19.05.2015 20:12 12,9 C 11,1 C 63 % 1007,7 hPa 0,0 l/m 0 min 0 min 56 W/m 27,2 km/h (4 Bft)
19.05.2015 20:14 12,9 C 11,1 C 63 % 1007,7 hPa 0,0 l/m 0 min 0 min 40 W/m 31,4 km/h (5 Bft)
19.05.2015 20:16 12,8 C 11,1 C 63 % 1007,6 hPa 0,0 l/m 0 min 0 min 35 W/m 37,7 km/h (5 Bft)
19.05.2015 20:18 12,7 C 11,1 C 64 % 1007,7 hPa 0,0 l/m 0 min 0 min 33 W/m 35,6 km/h (5 Bft)
19.05.2015 20:20 12,7 C 11,1 C 64 % 1007,7 hPa 0,0 l/m 0 min 0 min 33 W/m 18,8 km/h (3 Bft)
19.05.2015 20:22 12,7 C 11,1 C 64 % 1007,8 hPa 0,0 l/m 0 min 0 min 57 W/m 27,2 km/h (4 Bft)
19.05.2015 20:24 12,6 C 11,1 C 64 % 1007,8 hPa 0,0 l/m 0 min 0 min 61 W/m 20,9 km/h (4 Bft)
19.05.2015 20:26 12,6 C 11,1 C 65 % 1007,8 hPa 0,0 l/m 0 min 0 min 56 W/m 25,1 km/h (4 Bft)
19.05.2015 20:28 12,6 C 10,6 C 65 % 1007,7 hPa 0,0 l/m 0 min 0 min 52 W/m 20,9 km/h (4 Bft)
19.05.2015 20:30 12,5 C 10,6 C 65 % 1007,8 hPa 0,0 l/m 0 min 0 min 50 W/m 16,7 km/h (3 Bft)
19.05.2015 20:32 12,5 C 10,6 C 65 % 1007,7 hPa 0,0 l/m 0 min 0 min 44 W/m 18,8 km/h (3 Bft)
19.05.2015 20:34 12,4 C 10,6 C 65 % 1007,8 hPa 0,0 l/m 0 min 0 min 28 W/m 18,8 km/h (3 Bft)
19.05.2015 20:36 12,4 C 10,6 C 65 % 1007,8 hPa 0,0 l/m 0 min 0 min 25 W/m 18,8 km/h (3 Bft)
19.05.2015 20:38 12,4 C 10,6 C 65 % 1007,8 hPa 0,0 l/m 0 min 0 min 25 W/m 23,0 km/h (4 Bft)
19.05.2015 20:40 12,4 C 10,6 C 66 % 1007,7 hPa 0,0 l/m 0 min 0 min 25 W/m 23,0 km/h (4 Bft)
19.05.2015 20:42 12,3 C 10,6 C 66 % 1007,8 hPa 0,0 l/m 0 min 0 min 25 W/m 18,8 km/h (3 Bft)
19.05.2015 20:44 12,3 C 10,6 C 66 % 1007,7 hPa 0,0 l/m 0 min 0 min 25 W/m 23,0 km/h (4 Bft)
19.05.2015 20:46 12,3 C 10,6 C 66 % 1007,7 hPa 0,0 l/m 0 min 0 min 24 W/m 18,8 km/h (3 Bft)
19.05.2015 20:48 12,2 C 10,6 C 66 % 1007,8 hPa 0,0 l/m 0 min 0 min 23 W/m 23,0 km/h (4 Bft)
19.05.2015 20:50 12,2 C 10,6 C 66 % 1007,8 hPa 0,0 l/m 0 min 0 min 20 W/m 12,6 km/h (3 Bft)
19.05.2015 20:52 12,2 C 10,6 C 66 % 1007,8 hPa 0,0 l/m 0 min 0 min 19 W/m 16,7 km/h (3 Bft)
19.05.2015 20:54 12,2 C 10,6 C 66 % 1007,8 hPa 0,0 l/m 0 min 0 min 18 W/m 12,6 km/h (3 Bft)
19.05.2015 20:56 12,2 C 10,6 C 67 % 1007,7 hPa 0,0 l/m 0 min 0 min 17 W/m 18,8 km/h (3 Bft)
19.05.2015 20:58 12,1 C 10,6 C 67 % 1007,8 hPa 0,0 l/m 0 min 0 min 16 W/m 16,7 km/h (3 Bft)
19.05.2015 21:00 12,1 C 10,6 C 67 % 1007,9 hPa 0,0 l/m 0 min 0 min 16 W/m 18,8 km/h (3 Bft)
19.05.2015 21:02 12,1 C 10,6 C 68 % 1007,9 hPa 0,0 l/m 0 min 0 min 14 W/m 12,6 km/h (3 Bft)
19.05.2015 21:04 12,0 C 10,6 C 68 % 1008,0 hPa 0,0 l/m 0 min 0 min 14 W/m 16,7 km/h (3 Bft)
19.05.2015 21:06 12,0 C 10,0 C 68 % 1008,0 hPa 0,0 l/m 0 min 0 min 14 W/m 14,6 km/h (3 Bft)
19.05.2015 21:08 11,9 C 10,0 C 68 % 1008,0 hPa 0,0 l/m 0 min 0 min 12 W/m 18,8 km/h (3 Bft)
19.05.2015 21:10 11,9 C 10,0 C 69 % 1008,0 hPa 0,0 l/m 0 min 0 min 12 W/m 16,7 km/h (3 Bft)
19.05.2015 21:12 11,9 C 10,0 C 69 % 1008,0 hPa 0,0 l/m 0 min 0 min 11 W/m 14,6 km/h (3 Bft)
19.05.2015 21:14 11,8 C 10,0 C 69 % 1008,0 hPa 0,0 l/m 0 min 0 min 11 W/m 14,6 km/h (3 Bft)
19.05.2015 21:16 11,8 C 10,0 C 69 % 1008,0 hPa 0,0 l/m 0 min 0 min 11 W/m 16,7 km/h (3 Bft)
19.05.2015 21:18 11,8 C 10,0 C 70 % 1008,2 hPa 0,0 l/m 0 min 0 min 9 W/m 16,7 km/h (3 Bft)
19.05.2015 21:20 11,7 C 10,0 C 70 % 1008,2 hPa 0,0 l/m 0 min 0 min 8 W/m 18,8 km/h (3 Bft)
19.05.2015 21:22 11,7 C 10,0 C 70 % 1008,2 hPa 0,0 l/m 0 min 0 min 7 W/m 16,7 km/h (3 Bft)
19.05.2015 21:24 11,7 C 10,0 C 70 % 1008,2 hPa 0,0 l/m 0 min 0 min 7 W/m 16,7 km/h (3 Bft)
19.05.2015 21:26 11,6 C 10,0 C 70 % 1008,2 hPa 0,0 l/m 0 min 0 min 6 W/m 16,7 km/h (3 Bft)
19.05.2015 21:28 11,6 C 10,0 C 70 % 1008,2 hPa 0,0 l/m 0 min 0 min 5 W/m 14,6 km/h (3 Bft)
19.05.2015 21:30 11,6 C 10,0 C 71 % 1008,3 hPa 0,0 l/m 0 min 0 min 5 W/m 10,5 km/h (2 Bft)
19.05.2015 21:32 11,6 C 10,0 C 71 % 1008,3 hPa 0,0 l/m 0 min 0 min 3 W/m 18,8 km/h (3 Bft)
19.05.2015 21:34 11,6 C 10,0 C 71 % 1008,4 hPa 0,0 l/m 0 min 0 min 0 W/m 20,9 km/h (4 Bft)
19.05.2015 21:36 11,5 C 10,0 C 71 % 1008,4 hPa 0,0 l/m 0 min 0 min 0 W/m 12,6 km/h (3 Bft)
19.05.2015 21:38 11,4 C 10,0 C 71 % 1008,5 hPa 0,0 l/m 0 min 0 min 0 W/m 12,6 km/h (3 Bft)
19.05.2015 21:40 11,4 C 10,0 C 72 % 1008,5 hPa 0,0 l/m 0 min 0 min 0 W/m 18,8 km/h (3 Bft)
19.05.2015 21:42 11,4 C 10,0 C 72 % 1008,5 hPa 0,0 l/m 0 min 0 min 0 W/m 20,9 km/h (4 Bft)
19.05.2015 21:44 11,4 C 10,0 C 72 % 1008,5 hPa 0,0 l/m 0 min 0 min 0 W/m 10,5 km/h (2 Bft)
19.05.2015 21:46 11,4 C 10,0 C 72 % 1008,5 hPa 0,0 l/m 0 min 0 min 0 W/m 12,6 km/h (3 Bft)
19.05.2015 21:48 11,4 C 10,0 C 72 % 1008,6 hPa 0,0 l/m 0 min 0 min 0 W/m 18,8 km/h (3 Bft)
19.05.2015 21:50 11,4 C 10,0 C 73 % 1008,6 hPa 0,0 l/m 0 min 0 min 0 W/m 25,1 km/h (4 Bft)
19.05.2015 21:52 11,4 C 10,0 C 72 % 1008,6 hPa 0,0 l/m 0 min 0 min 0 W/m 12,6 km/h (3 Bft)
19.05.2015 21:54 11,4 C 10,0 C 73 % 1008,6 hPa 0,0 l/m 0 min 0 min 0 W/m 16,7 km/h (3 Bft)
19.05.2015 21:56 11,3 C 10,0 C 73 % 1008,6 hPa 0,0 l/m 0 min 0 min 0 W/m 14,6 km/h (3 Bft)
19.05.2015 21:58 11,3 C 10,0 C 73 % 1008,6 hPa 0,0 l/m 0 min 0 min 0 W/m 14,6 km/h (3 Bft)
19.05.2015 22:00 11,3 C 10,0 C 73 % 1008,6 hPa 0,0 l/m 0 min 0 min 0 W/m 20,9 km/h (4 Bft)
19.05.2015 22:02 11,3 C 10,0 C 73 % 1008,7 hPa 0,0 l/m 0 min 0 min 0 W/m 10,5 km/h (2 Bft)
19.05.2015 22:04 11,3 C 10,0 C 73 % 1008,6 hPa 0,0 l/m 0 min 0 min 0 W/m 14,6 km/h (3 Bft)
19.05.2015 22:06 11,3 C 10,0 C 73 % 1008,7 hPa 0,0 l/m 0 min 0 min 0 W/m 14,6 km/h (3 Bft)
19.05.2015 22:08 11,3 C 10,0 C 73 % 1008,7 hPa 0,0 l/m 0 min 0 min 0 W/m 20,9 km/h (4 Bft)
19.05.2015 22:10 11,2 C 10,0 C 73 % 1008,7 hPa 0,0 l/m 0 min 0 min 0 W/m 18,8 km/h (3 Bft)
19.05.2015 22:12 11,2 C 10,0 C 73 % 1008,8 hPa 0,0 l/m 0 min 0 min 0 W/m 14,6 km/h (3 Bft)
19.05.2015 22:14 11,2 C 10,0 C 73 % 1008,8 hPa 0,0 l/m 0 min 0 min 0 W/m 18,8 km/h (3 Bft)
19.05.2015 22:16 11,2 C 10,0 C 73 % 1008,8 hPa 0,0 l/m 0 min 0 min 0 W/m 16,7 km/h (3 Bft)
19.05.2015 22:18 11,2 C 10,0 C 73 % 1008,7 hPa 0,0 l/m 0 min 0 min 0 W/m 12,6 km/h (3 Bft)
19.05.2015 22:20 11,2 C 10,0 C 73 % 1008,7 hPa 0,0 l/m 0 min 0 min 0 W/m 20,9 km/h (4 Bft)
19.05.2015 22:22 11,2 C 10,0 C 73 % 1008,8 hPa 0,0 l/m 0 min 0 min 0 W/m 16,7 km/h (3 Bft)
19.05.2015 22:24 11,2 C 10,0 C 73 % 1008,8 hPa 0,0 l/m 0 min 0 min 0 W/m 14,6 km/h (3 Bft)
19.05.2015 22:26 11,1 C 10,0 C 73 % 1008,8 hPa 0,0 l/m 0 min 0 min 0 W/m 25,1 km/h (4 Bft)
19.05.2015 22:28 11,1 C 10,0 C 73 % 1008,8 hPa 0,0 l/m 0 min 0 min 0 W/m 16,7 km/h (3 Bft)
19.05.2015 22:30 11,1 C 10,0 C 73 % 1008,8 hPa 0,0 l/m 0 min 0 min 0 W/m 16,7 km/h (3 Bft)
19.05.2015 22:32 11,1 C 10,0 C 73 % 1008,8 hPa 0,0 l/m 0 min 0 min 0 W/m 14,6 km/h (3 Bft)
19.05.2015 22:34 11,1 C 10,0 C 73 % 1008,8 hPa 0,0 l/m 0 min 0 min 0 W/m 18,8 km/h (3 Bft)
19.05.2015 22:36 11,1 C 10,0 C 73 % 1008,8 hPa 0,0 l/m 0 min 0 min 0 W/m 16,7 km/h (3 Bft)
19.05.2015 22:38 11,1 C 10,0 C 73 % 1008,8 hPa 0,0 l/m 0 min 0 min 0 W/m 16,7 km/h (3 Bft)
19.05.2015 22:40 11,0 C 10,0 C 73 % 1008,8 hPa 0,0 l/m 0 min 0 min 0 W/m 12,6 km/h (3 Bft)
19.05.2015 22:42 11,0 C 10,0 C 73 % 1008,8 hPa 0,0 l/m 0 min 0 min 0 W/m 14,6 km/h (3 Bft)
19.05.2015 22:44 11,0 C 10,0 C 73 % 1008,8 hPa 0,0 l/m 0 min 0 min 0 W/m 16,7 km/h (3 Bft)
19.05.2015 22:46 11,0 C 10,0 C 73 % 1008,8 hPa 0,0 l/m 0 min 0 min 0 W/m 18,8 km/h (3 Bft)
19.05.2015 22:48 10,9 C 9,4 C 73 % 1008,9 hPa 0,0 l/m 0 min 0 min 0 W/m 16,7 km/h (3 Bft)
19.05.2015 22:50 10,9 C 9,4 C 73 % 1008,9 hPa 0,0 l/m 0 min 0 min 0 W/m 16,7 km/h (3 Bft)
19.05.2015 22:52 10,9 C 9,4 C 73 % 1008,9 hPa 0,0 l/m 0 min 0 min 0 W/m 20,9 km/h (4 Bft)
19.05.2015 22:54 10,9 C 9,4 C 73 % 1009,0 hPa 0,0 l/m 0 min 0 min 0 W/m 10,5 km/h (2 Bft)
19.05.2015 22:56 10,9 C 9,4 C 73 % 1009,0 hPa 0,0 l/m 0 min 0 min 0 W/m 14,6 km/h (3 Bft)
19.05.2015 22:58 10,9 C 9,4 C 73 % 1009,1 hPa 0,0 l/m 0 min 0 min 0 W/m 12,6 km/h (3 Bft)
19.05.2015 23:00 10,9 C 9,4 C 74 % 1009,1 hPa 0,0 l/m 0 min 0 min 0 W/m 14,6 km/h (3 Bft)
19.05.2015 23:02 10,8 C 9,4 C 74 % 1009,1 hPa 0,0 l/m 0 min 0 min 0 W/m 18,8 km/h (3 Bft)
19.05.2015 23:04 10,8 C 9,4 C 74 % 1009,1 hPa 0,0 l/m 0 min 0 min 0 W/m 23,0 km/h (4 Bft)
19.05.2015 23:06 10,8 C 9,4 C 74 % 1009,1 hPa 0,0 l/m 0 min 0 min 0 W/m 16,7 km/h (3 Bft)
19.05.2015 23:08 10,8 C 9,4 C 74 % 1009,1 hPa 0,0 l/m 0 min 0 min 0 W/m 14,6 km/h (3 Bft)
19.05.2015 23:10 10,7 C 9,4 C 74 % 1009,2 hPa 0,0 l/m 0 min 0 min 0 W/m 16,7 km/h (3 Bft)
19.05.2015 23:12 10,7 C 9,4 C 74 % 1009,1 hPa 0,0 l/m 0 min 0 min 0 W/m 20,9 km/h (4 Bft)
19.05.2015 23:14 10,7 C 9,4 C 74 % 1009,2 hPa 0,0 l/m 0 min 0 min 0 W/m 18,8 km/h (3 Bft)
19.05.2015 23:16 10,6 C 9,4 C 74 % 1009,2 hPa 0,0 l/m 0 min 0 min 0 W/m 14,6 km/h (3 Bft)
19.05.2015 23:18 10,6 C 9,4 C 74 % 1009,2 hPa 0,0 l/m 0 min 0 min 0 W/m 18,8 km/h (3 Bft)
19.05.2015 23:20 10,6 C 9,4 C 74 % 1009,2 hPa 0,0 l/m 0 min 0 min 0 W/m 16,7 km/h (3 Bft)
19.05.2015 23:22 10,6 C 9,4 C 74 % 1009,1 hPa 0,0 l/m 0 min 0 min 0 W/m 10,5 km/h (2 Bft)
19.05.2015 23:24 10,6 C 9,4 C 74 % 1009,2 hPa 0,0 l/m 0 min 0 min 0 W/m 14,6 km/h (3 Bft)
19.05.2015 23:26 10,5 C 9,4 C 74 % 1009,2 hPa 0,0 l/m 0 min 0 min 0 W/m 12,6 km/h (3 Bft)
19.05.2015 23:28 10,5 C 9,4 C 75 % 1009,2 hPa 0,0 l/m 0 min 0 min 0 W/m 12,6 km/h (3 Bft)
19.05.2015 23:30 10,5 C 9,4 C 75 % 1009,1 hPa 0,0 l/m 0 min 0 min 0 W/m 14,6 km/h (3 Bft)
19.05.2015 23:32 10,4 C 8,9 C 75 % 1009,2 hPa 0,0 l/m 0 min 0 min 0 W/m 18,8 km/h (3 Bft)
19.05.2015 23:34 10,4 C 8,9 C 75 % 1009,2 hPa 0,0 l/m 0 min 0 min 0 W/m 16,7 km/h (3 Bft)
19.05.2015 23:36 10,4 C 8,9 C 75 % 1009,2 hPa 0,0 l/m 0 min 0 min 0 W/m 14,6 km/h (3 Bft)
19.05.2015 23:38 10,3 C 8,9 C 75 % 1009,2 hPa 0,0 l/m 0 min 0 min 0 W/m 14,6 km/h (3 Bft)
19.05.2015 23:40 10,3 C 8,9 C 75 % 1009,2 hPa 0,0 l/m 0 min 0 min 0 W/m 14,6 km/h (3 Bft)
19.05.2015 23:42 10,3 C 8,9 C 75 % 1009,2 hPa 0,0 l/m 0 min 0 min 0 W/m 14,6 km/h (3 Bft)
19.05.2015 23:44 10,2 C 8,9 C 75 % 1009,2 hPa 0,0 l/m 0 min 0 min 0 W/m 14,6 km/h (3 Bft)
19.05.2015 23:46 10,2 C 8,9 C 75 % 1009,2 hPa 0,0 l/m 0 min 0 min 0 W/m 14,6 km/h (3 Bft)
19.05.2015 23:48 10,2 C 8,9 C 75 % 1009,2 hPa 0,0 l/m 0 min 0 min 0 W/m 10,5 km/h (2 Bft)
19.05.2015 23:50 10,2 C 8,9 C 75 % 1009,2 hPa 0,0 l/m 0 min 0 min 0 W/m 18,8 km/h (3 Bft)
19.05.2015 23:52 10,1 C 8,9 C 76 % 1009,2 hPa 0,0 l/m 0 min 0 min 0 W/m 14,6 km/h (3 Bft)
19.05.2015 23:54 10,1 C 8,9 C 76 % 1009,2 hPa 0,0 l/m 0 min 0 min 0 W/m 14,6 km/h (3 Bft)
19.05.2015 23:56 10,1 C 8,9 C 76 % 1009,2 hPa 0,0 l/m 0 min 0 min 0 W/m 14,6 km/h (3 Bft)
19.05.2015 23:58 10,0 C 8,9 C 76 % 1009,3 hPa 0,0 l/m 0 min 0 min 0 W/m 12,6 km/h (3 Bft)
_ Min-Zeit 05:28 04:26 15:20 02:10 - - - - 00:02
Minimum _ 8,3 C 7,8 C 53 % 1004,0 hPa - - - - 8,4 km/h (2 Bft)
_ Max-Zeit 15:18 13:06 02:02 23:58 00:10 07:08 00:06 13:06 19:26
Maximum _ 16,7 C 16,7 C 90 % 1009,3 hPa 0,2 l/m 2 min 2 min 1129 W/m 54,4 km/h
W-SW (7 Bft)
Durchschnitt _ 11,8 C 10,8 C 74 % 1006,4 hPa #0,8 l/m #7:08 h #2:10 h 316 W/m 25,7 km/h (4 Bft)
© 2015 W. Hausmann